     2.10           OBSERVATION DATA    G (GPS)             RINEX VERSION / TYPE
teqc 2002Mar18 Lou Estey 20020318 16:49:56UTC               PGM / RUN BY / DATE
Solaris 2.7|Ultra 2|cc SC5.0|=+-|*Sparc                     COMMENT
BIT 2 OF LLI FLAGS DATA COLLECTED UNDER A/S CONDITION       COMMENT
-Unknown-                                                   MARKER NAME
-Unknown- -Unknown-                                         OBSERVER / AGENCY
-Unknown- TURBOROGUE -Unknown-                              REC # / TYPE / VERS
-Unknown- -Unknown-                                         ANT # / TYPE
        0.0000        0.0000        0.0000                  APPROX POSITION XYZ
        0.0000        0.0000        0.0000                  ANTENNA: DELTA H/E/N
     1     1                                                WAVELENGTH FACT L1/2
     5    L1    L2    C1    P1    P2                        # / TYPES OF OBSERV
     0.0200                                                 INTERVAL
P1 = P1 TurboRogue; = Y1 Benchmark                          COMMENT
L1 = L1(P1) TurboRogue; = L1(Y1) Benchmark                  COMMENT
P2 = P2 TurboRogue; = Y2 Benchmark                          COMMENT
L2 = L2(P2) TurboRogue; = L2(Y2) Benchmark                  COMMENT
SNR is mapped to RINEX snr flag value [1,4-9]               COMMENT
SNR: >=316 >=100 >=31.6 >=10 >=3.2 >0 bad=0                 COMMENT
L1 & L2: 9 8 7 6 5 4 1                                      COMMENT
  1996    10    24    23    11   50.5000000     GPS         TIME OF FIRST OBS
                                                            END OF HEADER
 96 10 24 23 11 50.5000000  0  2G23G27
  36055220.662 9                  28094945.838 6
   3102306.654 9   2417204.954 6
 96 10 24 23 11 50.5200000  0  2G23G27
  36055879.393 9                  28095459.154 6
   3102607.634 9   2417439.571 6
 96 10 24 23 11 50.5400000  0  2G23G27
  36056538.127 9                  28095972.379 6
   3102908.646 9   2417674.055 6
 96 10 24 23 11 50.5600000  0  2G23G27
  36057196.866 9                  28096485.818 6
   3103209.672 9   2417908.477 6
 96 10 24 23 11 50.5800000  0  2G23G27
  36057855.599 9                  28096999.065 5
   3103510.696 9   2418142.782 6
 96 10 24 23 11 50.6000000  0  2G23G27
  36058514.321 9                  28097512.356 6
   3103811.744 9   2418377.627 6
 96 10 24 23 11 50.6200000  0  2G23G27
  36059173.046 9                  28098025.623 6
   3104112.808 9   2418612.280 6
 96 10 24 23 11 50.6400000  0  2G23G27
  36059831.767 9                  28098538.993 6
   3104413.877 9   2418846.866 6
 96 10 24 23 11 50.6600000  0  2G23G27
  36060490.483 9                  28099052.308 6
   3104714.957 9   2419081.575 6
 96 10 24 23 11 50.6800000  0  2G23G27
  36061149.195 9                  28099565.464 6
   3105016.065 9   2419316.072 5
 96 10 24 23 11 50.7000000  0  2G23G27
  36061807.903 9                  28100078.675 7
   3105317.177 9   2419550.665 6
 96 10 24 23 11 50.7200000  0  2G23G27
  36062466.605 9                  28100592.044 6
   3105618.306 9   2419785.360 6
 96 10 24 23 11 50.7400000  0  2G23G27
  36063125.309 9                  28101105.278 6
   3105919.446 9   2420020.080 6
 96 10 24 23 11 50.7600000  0  2G23G27
  36063784.009 9                  28101618.587 5
   3106220.605 9   2420254.549 7
 96 10 24 23 11 50.7800000  0  2G23G27
  36064442.709 9                  28102131.763 6
   3106521.788 9   2420489.453 5
 96 10 24 23 11 50.8000000  0  2G23G27
  36065101.410 9                  28102645.107 6
   3106822.973 9   2420724.115 6
 96 10 24 23 11 50.8200000  0  2G23G27
  36065760.113 9                  28103158.335 6
   3107124.192 9   2420958.446 5
 96 10 24 23 11 50.8400000  0  2G23G27
  36066418.812 9                  28103671.788 6
   3107425.421 9   2421193.162 6
 96 10 24 23 11 50.8600000  0  2G23G27
  36067077.508 9                  28104185.105 6
   3107726.674 9   2421428.201 6
 96 10 24 23 11 50.8800000  0  2G23G27
  36067736.200 9                  28104698.169 6
   3108027.918 9   2421662.762 6
 96 10 24 23 11 50.9000000  0  2G23G27
  36068394.881 9                  28105211.514 6
   3108329.193 9   2421897.660 6
 96 10 24 23 11 50.9200000  0  2G23G27
  36069053.565 9                  28105724.799 5
   3108630.467 9   2422132.382 6
 96 10 24 23 11 50.9400000  0  2G23G27
  36069712.246 9                  28106237.988 6
   3108931.774 9   2422367.522 7
 96 10 24 23 11 50.9600000  0  2G23G27
  36070370.920 9                  28106751.314 6
   3109233.071 9   2422601.974 6
 96 10 24 23 11 50.9800000  0  2G23G27
  36071029.594 9                  28107264.467 6
   3109534.388 9   2422836.621 5
 96 10 24 23 11 51.0000000  0  2G23G27
  36071688.256 9                  28107777.819 6  28456585.074    28456595.409
   3109835.722 9   2423071.581 5  20665124.026                    20665125.868
 96 10 24 23 11 51.0200000  0  2G23G27
  36072346.912 9                  28108291.110 6
   3110137.061 9   2423306.358 6
 96 10 24 23 11 51.0400000  0  2G23G27
  36073005.566 9                  28108804.238 6
   3110438.425 9   2423541.062 6
 96 10 24 23 11 51.0600000  0  2G23G27
  36073664.225 9                  28109317.361 6
   3110739.789 9   2423776.094 6
 96 10 24 23 11 51.0800000  0  2G23G27
  36074322.878 9                  28109830.653 6
   3111041.176 9   2424010.788 6
 96 10 24 23 11 51.1000000  0  2G23G27
  36074981.521 9                  28110344.011 6
   3111342.574 9   2424245.707 6
 96 10 24 23 11 51.1200000  0  2G23G27
  36075640.164 9                  28110857.084 6
   3111643.981 9   2424480.777 6
 96 10 24 23 11 51.1400000  0  2G23G27
  36076298.796 9                  28111370.376 6
   3111945.411 9   2424715.605 6
 96 10 24 23 11 51.1600000  0  2G23G27
  36076957.429 9                  28111883.680 7
   3112246.849 9   2424950.507 7
 96 10 24 23 11 51.1800000  0  2G23G27
  36077616.065 9                  28112396.852 7
   3112548.297 9   2425185.416 7
 96 10 24 23 11 51.2000000  0  2G23G27
  36078274.689 9                  28112910.002 6
   3112849.754 9   2425420.453 6
 96 10 24 23 11 51.2200000  0  2G23G27
  36078933.308 9                  28113423.407 6
   3113151.245 9   2425655.123 6
 96 10 24 23 11 51.2400000  0  2G23G27
  36079591.921 9                  28113936.522 6
   3113452.733 9   2425890.064 5
 96 10 24 23 11 51.2600000  0  2G23G27
  36080250.537 9                  28114449.639 6
   3113754.232 9   2426125.021 6
 96 10 24 23 11 51.2800000  0  2G23G27
  36080909.148 9                  28114962.930 6
   3114055.752 9   2426359.960 6
 96 10 24 23 11 51.3000000  0  2G23G27
  36081567.754 9                  28115476.091 6
   3114357.286 9   2426595.024 6
 96 10 24 23 11 51.3200000  0  2G23G27
  36082226.353 9                  28115989.268 6
   3114658.834 9   2426829.734 6
 96 10 24 23 11 51.3400000  0  2G23G27
  36082884.953 9                  28116502.512 6
   3114960.394 9   2427064.985 5
 96 10 24 23 11 51.3600000  0  2G23G27
  36083543.554 9                  28117015.740 6
   3115261.962 9   2427299.762 6
 96 10 24 23 11 51.3800000  0  2G23G27
  36084202.145 9                  28117528.842 7
   3115563.542 9   2427534.668 6
 96 10 24 23 11 51.4000000  0  2G23G27
  36084860.736 9                  28118042.192 6
   3115865.143 9   2427769.778 6
 96 10 24 23 11 51.4200000  0  2G23G27
  36085519.315 9                  28118555.311 6
   3116166.756 9   2428004.732 6
 96 10 24 23 11 51.4400000  0  2G23G27
  36086177.901 9                  28119068.452 7
   3116468.382 9   2428240.013 6
 96 10 24 23 11 51.4600000  0  2G23G27
  36086836.473 9                  28119581.647 6
   3116770.029 9   2428474.918 6
 96 10 24 23 11 51.4800000  0  2G23G27
  36087495.041 9                  28120094.740 6
   3117071.671 9   2428709.944 6
 96 10 24 23 11 51.5000000  0  2G23G27
  36088153.609 9                  28120607.888 6
   3117373.340 9   2428944.923 6
 96 10 24 23 11 51.5200000  0  2G23G27
  36088812.167 9                  28121121.053 6
   3117675.020 9   2429180.108 6
 96 10 24 23 11 51.5400000  0  2G23G27
  36089470.735 9                  28121634.292 6
   3117976.714 9   2429415.148 5
 96 10 24 23 11 51.5600000  0  2G23G27
  36090129.298 9                  28122147.346 6
   3118278.423 9   2429650.181 6
 96 10 24 23 11 51.5800000  0  2G23G27
  36090787.859 9                  28122660.414 6
   3118580.158 9   2429885.862 7
 96 10 24 23 11 51.6000000  0  2G23G27
  36091446.418 9                  28123173.770 6
   3118881.902 9   2430120.235 6
 96 10 24 23 11 51.6200000  0  2G23G27
  36092104.974 9                  28123686.959 7
   3119183.668 9   2430355.871 5
 96 10 24 23 11 51.6400000  0  2G23G27
  36092763.524 9                  28124200.195 7
   3119485.437 9   2430590.756 6
 96 10 24 23 11 51.6600000  0  2G23G27
  36093422.071 9                  28124713.459 6
   3119787.219 9   2430825.839 6
 96 10 24 23 11 51.6800000  0  2G23G27
  36094080.613 9                  28125226.430 6
   3120089.015 9   2431061.261 6
 96 10 24 23 11 51.7000000  0  2G23G27
  36094739.156 9                  28125739.708 6
   3120390.827 9   2431296.119 6
 96 10 24 23 11 51.7200000  0  2G23G27
  36095397.685 9                  28126252.735 6
   3120692.649 9   2431531.623 4
 96 10 24 23 11 51.7400000  0  2G23G27
  36096056.210 9                  28126765.839 6
   3120994.492 9   2431766.621 5
 96 10 24 23 11 51.7600000  0  2G23G27
  36096714.731 9                  28127279.044 7
   3121296.331 9   2432002.060 6
 96 10 24 23 11 51.7800000  0  2G23G27
  36097373.249 9                  28127792.080 6
   3121598.192 9   2432237.138 6
 96 10 24 23 11 51.8000000  0  2G23G27
  36098031.760 9                  28128305.302 6
   3121900.072 9   2432472.258 6
 96 10 24 23 11 51.8200000  0  2G23G27
  36098690.271 9                  28128818.385 6
   3122201.955 9   2432707.567 5
 96 10 24 23 11 51.8400000  0  2G23G27
  36099348.777 9                  28129331.425 6
   3122503.849 9   2432942.745 6
 96 10 24 23 11 51.8600000  0  2G23G27
  36100007.273 9                  28129844.598 6
   3122805.763 9   2433178.148 7
 96 10 24 23 11 51.8800000  0  2G23G27
  36100665.770 9                  28130357.860 6
   3123107.701 9   2433413.476 6
 96 10 24 23 11 51.9000000  0  2G23G27
  36101324.262 9                  28130870.845 6
   3123409.634 9   2433648.756 6
 96 10 24 23 11 51.9200000  0  2G23G27
  36101982.745 9                  28131383.820 6
   3123711.590 9   2433883.916 5
 96 10 24 23 11 51.9400000  0  2G23G27
  36102641.222 9                  28131897.064 6
   3124013.551 9   2434119.050 6
 96 10 24 23 11 51.9600000  0  2G23G27
  36103299.704 9                  28132410.085 6
   3124315.530 9   2434354.353 6
 96 10 24 23 11 51.9800000  0  2G23G27
  36103958.182 9                  28132923.283 6
   3124617.533 9   2434589.907 6
 96 10 24 23 11 52.0000000  0  2G23G27
  36104616.648 9                  28133436.456 7  28462851.220    28462861.509
   3124919.534 9   2434825.307 6  20667994.350                    20668001.068
 96 10 24 23 11 52.0200000  0  2G23G27
  36105275.116 9                  28133949.467 6
   3125221.536 9   2435060.393 6
 96 10 24 23 11 52.0400000  0  2G23G27
  36105933.575 9                  28134462.435 6
   3125523.571 9   2435295.923 6
 96 10 24 23 11 52.0600000  0  2G23G27
  36106592.030 9                  28134975.493 6
   3125825.620 9   2435531.405 7
 96 10 24 23 11 52.0800000  0  2G23G27
  36107250.484 9                  28135488.707 6
   3126127.669 9   2435766.510 6
 96 10 24 23 11 52.1000000  0  2G23G27
  36107908.929 9                  28136001.768 6
   3126429.741 9   2436001.688 5
 96 10 24 23 11 52.1200000  0  2G23G27
  36108567.367 9                  28136514.861 6
   3126731.816 9   2436237.311 7
 96 10 24 23 11 52.1400000  0  2G23G27
  36109225.803 9                  28137028.029 6
   3127033.909 9   2436472.768 6
 96 10 24 23 11 52.1600000  0  2G23G27
  36109884.231 9                  28137540.971 6
   3127336.018 9   2436708.375 6
 96 10 24 23 11 52.1800000  0  2G23G27
  36110542.658 9                  28138054.028 6
   3127638.136 9   2436943.743 6
 96 10 24 23 11 52.2000000  0  2G23G27
  36111201.083 9                  28138567.037 5
   3127940.263 9   2437179.066 6
 96 10 24 23 11 52.2200000  0  2G23G27
  36111859.494 9                  28139080.190 6
   3128242.412 9   2437414.383 6
 96 10 24 23 11 52.2400000  0  2G23G27
  36112517.910 9                  28139593.225 6
   3128544.564 9   2437650.082 6
 96 10 24 23 11 52.2600000  0  2G23G27
  36113176.322 9                  28140106.223 6
   3128846.725 9   2437885.360 6
 96 10 24 23 11 52.2800000  0  2G23G27
  36113834.723 9                  28140619.208 6
   3129148.915 9   2438120.784 5
 96 10 24 23 11 52.3000000  0  2G23G27
  36114493.125 9                  28141132.248 6
   3129451.110 9   2438356.315 6
 96 10 24 23 11 52.3200000  0  2G23G27
  36115151.524 9                  28141645.340 6
   3129753.323 9   2438591.968 6
 96 10 24 23 11 52.3400000  0  2G23G27
  36115809.920 9                  28142158.498 6
   3130055.533 9   2438827.230 6
 96 10 24 23 11 52.3600000  0  2G23G27
  36116468.312 9                  28142671.533 6
   3130357.779 9   2439063.162 6
 96 10 24 23 11 52.3800000  0  2G23G27
  36117126.692 9                  28143184.516 6
   3130660.029 9   2439298.572 6
 96 10 24 23 11 52.4000000  0  2G23G27
  36117785.070 9                  28143697.523 6
   3130962.288 9   2439533.917 7
 96 10 24 23 11 52.4200000  0  2G23G27
  36118443.444 9                  28144210.474 6
   3131264.566 9   2439769.203 6
 96 10 24 23 11 52.4400000  0  2G23G27
  36119101.811 9                  28144723.388 6
   3131566.848 9   2440005.062 5
 96 10 24 23 11 52.4600000  0  2G23G27
  36119760.180 9                  28145236.319 6
   3131869.146 9   2440240.586 6
 96 10 24 23 11 52.4800000  0  2G23G27
  36120418.542 9                  28145749.422 6
   3132171.461 9   2440476.019 6
 96 10 24 23 11 52.5000000  0  2G23G27
  36121076.904 9                  28146262.474 6
   3132473.792 9   2440711.505 6
 96 10 24 23 11 52.5200000  0  2G23G27
  36121735.258 9                  28146775.535 6
   3132776.128 9   2440946.927 6
 96 10 24 23 11 52.5400000  0  2G23G27
  36122393.611 9                  28147288.516 6
   3133078.489 9   2441183.021 6
 96 10 24 23 11 52.5600000  0  2G23G27
  36123051.966 9                  28147801.592 6
   3133380.872 9   2441418.598 6
 96 10 24 23 11 52.5800000  0  2G23G27
  36123710.322 9                  28148314.456 6
   3133683.262 9   2441654.013 5
 96 10 24 23 11 52.6000000  0  2G23G27
  36124368.676 9                  28148827.580 6
   3133985.674 9   2441889.820 6
 96 10 24 23 11 52.6200000  0  2G23G27
  36125027.022 9                  28149340.610 5
   3134288.084 9   2442125.459 6
 96 10 24 23 11 52.6400000  0  2G23G27
  36125685.362 9                  28149853.579 6
   3134590.519 9   2442360.780 6
 96 10 24 23 11 52.6600000  0  2G23G27
  36126343.695 9                  28150366.501 6
   3134892.967 9   2442596.801 6
 96 10 24 23 11 52.6800000  0  2G23G27
  36127002.035 9                  28150879.432 6
   3135195.414 9   2442832.539 6
 96 10 24 23 11 52.7000000  0  2G23G27
  36127660.362 9                  28151392.598 6
   3135497.882 9   2443068.227 6
 96 10 24 23 11 52.7200000  0  2G23G27
  36128318.686 9                  28151905.671 6
   3135800.371 9   2443303.687 5
 96 10 24 23 11 52.7400000  0  2G23G27
  36128977.004 9                  28152418.494 6
   3136102.860 9   2443539.389 6
 96 10 24 23 11 52.7600000  0  2G23G27
  36129635.313 9                  28152931.374 6
   3136405.364 9   2443775.165 5
 96 10 24 23 11 52.7800000  0  2G23G27
  36130293.622 9                  28153444.483 6
   3136707.898 9   2444010.873 6
 96 10 24 23 11 52.8000000  0  2G23G27
  36130951.920 9                  28153957.339 6
   3137010.419 8   2444246.642 6
 96 10 24 23 11 52.8200000  0  2G23G27
  36131610.217 9                  28154470.284 7
   3137312.964 9   2444482.402 6
 96 10 24 23 11 52.8400000  0  2G23G27
  36132268.511 9                  28154983.309 6
   3137615.522 9   2444718.389 6
 96 10 24 23 11 52.8600000  0  2G23G27
  36132926.799 9                  28155496.314 6
   3137918.091 9   2444953.827 6
 96 10 24 23 11 52.8800000  0  2G23G27
  36133585.087 9                  28156009.341 6
   3138220.673 9   2445189.801 5
 96 10 24 23 11 52.9000000  0  2G23G27
  36134243.368 9                  28156522.124 6
   3138523.266 9   2445425.471 6
 96 10 24 23 11 52.9200000  0  2G23G27
  36134901.641 9                  28157034.986 6
   3138825.877 9   2445661.532 6
 96 10 24 23 11 52.9400000  0  2G23G27
  36135559.911 9                  28157547.875 6
   3139128.499 9   2445897.024 6
 96 10 24 23 11 52.9600000  0  2G23G27
  36136218.180 9                  28158060.916 7
   3139431.123 9   2446132.953 6
 96 10 24 23 11 52.9800000  0  2G23G27
  36136876.442 9                  28158573.978 6
   3139733.777 9   2446368.749 6
 96 10 24 23 11 53.0000000  0  2G23G27
  36137534.699 9                  28159086.767 7  28469115.126    28469124.030
   3140036.445 9   2446604.533 6  20670870.844    20670870.749
 96 10 24 23 11 53.0200000  0  2G23G27
  36138192.953 9                  28159599.720 6
   3140339.121 9   2446840.381 6
 96 10 24 23 11 53.0400000  0  2G23G27
  36138851.200 9                  28160112.673 6
   3140641.806 9   2447076.476 5
 96 10 24 23 11 53.0600000  0  2G23G27
  36139509.446 9                  28160625.583 6
   3140944.505 9   2447312.142 7
 96 10 24 23 11 53.0800000  0  2G23G27
  36140167.691 9                  28161138.330 7
   3141247.211 9   2447548.116 5
 96 10 24 23 11 53.1000000  0  2G23G27
  36140825.929 9                  28161651.326 6
   3141549.946 9   2447784.105 6
 96 10 24 23 11 53.1200000  0  2G23G27
  36141484.164 9                  28162164.398 6
   3141852.686 9   2448019.780 6
 96 10 24 23 11 53.1400000  0  2G23G27
  36142142.390 9                  28162677.195 6
   3142155.441 9   2448255.921 6
 96 10 24 23 11 53.1600000  0  2G23G27
  36142800.620 9                  28163190.058 6
   3142458.216 9   2448491.841 6
 96 10 24 23 11 53.1800000  0  2G23G27
  36143458.841 9                  28163702.990 6
   3142760.991 9   2448727.729 7
 96 10 24 23 11 53.2000000  0  2G23G27
  36144117.060 9                  28164215.980 6
   3143063.792 9   2448963.730 5
 96 10 24 23 11 53.2200000  0  2G23G27
  36144775.269 9                  28164728.794 6
   3143366.592 9   2449199.361 6
 96 10 24 23 11 53.2400000  0  2G23G27
  36145433.484 9                  28165241.651 6
   3143669.404 9   2449435.582 6
 96 10 24 23 11 53.2600000  0  2G23G27
  36146091.695 9                  28165754.508 6
   3143972.234 9   2449671.413 6
 96 10 24 23 11 53.2800000  0  2G23G27
  36146749.900 9                  28166267.549 6
   3144275.085 9   2449907.463 4
 96 10 24 23 11 53.3000000  0  2G23G27
  36147408.093 9                  28166780.412 7
   3144577.950 9   2450143.409 6
 96 10 24 23 11 53.3200000  0  2G23G27
  36148066.291 9                  28167293.210 6
   3144880.822 9   2450379.490 6
 96 10 24 23 11 53.3400000  0  2G23G27
  36148724.483 9                  28167806.321 6
   3145183.717 9   2450615.387 6
 96 10 24 23 11 53.3600000  0  2G23G27
  36149382.669 9                  28168319.205 6
   3145486.613 9   2450851.390 6
 96 10 24 23 11 53.3800000  0  2G23G27
  36150040.856 9                  28168831.880 6
   3145789.534 9   2451087.445 6
 96 10 24 23 11 53.4000000  0  2G23G27
  36150699.034 9                  28169344.720 6
   3146092.455 9   2451323.585 6
 96 10 24 23 11 53.4200000  0  2G23G27
  36151357.210 9                  28169857.562 6
   3146395.400 9   2451559.668 6
 96 10 24 23 11 53.4400000  0  2G23G27
  36152015.383 9                  28170370.576 6
   3146698.355 9   2451795.883 6
 96 10 24 23 11 53.4600000  0  2G23G27
  36152673.554 9                  28170883.497 6
   3147001.317 9   2452031.709 5
 96 10 24 23 11 53.4800000  0  2G23G27
  36153331.716 9                  28171396.307 6
   3147304.297 9   2452267.761 6
 96 10 24 23 11 53.5000000  0  2G23G27
  36153989.878 9                  28171909.099 6
   3147607.301 9   2452504.202 6
 96 10 24 23 11 53.5200000  0  2G23G27
  36154648.042 9                  28172421.897 6
   3147910.314 9   2452740.177 6
 96 10 24 23 11 53.5400000  0  2G23G27
  36155306.202 9                  28172934.656 6
   3148213.343 9   2452976.176 6
 96 10 24 23 11 53.5600000  0  2G23G27
  36155964.364 9                  28173447.690 6
   3148516.387 9   2453212.412 6
 96 10 24 23 11 53.5800000  0  2G23G27
  36156622.524 9                  28173960.509 6
   3148819.436 9   2453448.321 6
 96 10 24 23 11 53.6000000  0  2G23G27
  36157280.678 9                  28174473.339 6
   3149122.526 9   2453684.613 6
 96 10 24 23 11 53.6200000  0  2G23G27
  36157938.831 9                  28174986.313 6
   3149425.622 9   2453921.054 6
 96 10 24 23 11 53.6400000  0  2G23G27
  36158596.978 9                  28175499.005 6
   3149728.714 9   2454157.261 6
 96 10 24 23 11 53.6600000  0  2G23G27
  36159255.120 9                  28176011.857 6
   3150031.824 9   2454393.233 6
 96 10 24 23 11 53.6800000  0  2G23G27
  36159913.256 9                  28176524.732 6
   3150334.956 9   2454629.466 6
 96 10 24 23 11 53.7000000  0  2G23G27
  36160571.388 9                  28177037.612 6
   3150638.103 9   2454865.697 5
 96 10 24 23 11 53.7200000  0  2G23G27
  36161229.526 9                  28177550.374 6
   3150941.254 9   2455101.743 6
 96 10 24 23 11 53.7400000  0  2G23G27
  36161887.650 9                  28178063.231 6
   3151244.411 9   2455338.136 6
 96 10 24 23 11 53.7600000  0  2G23G27
  36162545.766 9                  28178575.975 7
   3151547.595 9   2455574.270 6
 96 10 24 23 11 53.7800000  0  2G23G27
  36163203.887 9                  28179088.919 6
   3151850.792 9   2455810.799 6
 96 10 24 23 11 53.8000000  0  2G23G27
  36163861.999 9                  28179601.647 6
   3152153.989 9   2456047.002 6
 96 10 24 23 11 53.8200000  0  2G23G27
  36164520.102 9                  28180114.335 5
   3152457.205 9   2456283.250 6
 96 10 24 23 11 53.8400000  0  2G23G27
  36165178.209 9                  28180627.068 6
   3152760.444 9   2456519.489 6
 96 10 24 23 11 53.8600000  0  2G23G27
  36165836.308 9                  28181140.005 6
   3153063.684 9   2456755.879 6
 96 10 24 23 11 53.8800000  0  2G23G27
  36166494.403 9                  28181653.057 6
   3153366.944 9   2456992.092 6
 96 10 24 23 11 53.9000000  0  2G23G27
  36167152.495 9                  28182165.684 6
   3153670.225 9   2457228.264 6
 96 10 24 23 11 53.9200000  0  2G23G27
  36167810.578 9                  28182678.372 6
   3153973.494 9   2457464.701 6
 96 10 24 23 11 53.9400000  0  2G23G27
  36168468.664 9                  28183191.228 6
   3154276.796 9   2457701.241 6
 96 10 24 23 11 53.9600000  0  2G23G27
  36169126.743 9                  28183704.086 6
   3154580.111 9   2457937.343 6
 96 10 24 23 11 53.9800000  0  2G23G27
  36169784.816 9                  28184216.781 6
   3154883.425 9   2458173.844 5
 96 10 24 23 11 54.0000000  0  2G23G27
  36170442.885 9                  28184729.656 6  28475377.223    28475387.706
   3155186.758 8   2458410.151 4  20673754.039                    20673748.662
 96 10 24 23 11 54.0200000  0  2G23G27
  36171100.949 9                  28185242.489 6
   3155490.116 9   2458646.711 6
 96 10 24 23 11 54.0400000  0  2G23G27
  36171759.012 9                  28185755.249 6
   3155793.477 9   2458883.047 5
 96 10 24 23 11 54.0600000  0  2G23G27
  36172417.070 9                  28186268.033 6
   3156096.852 9   2459119.107 6
 96 10 24 23 11 54.0800000  0  2G23G27
  36173075.123 9                  28186780.818 5
   3156400.240 9   2459355.622 6
 96 10 24 23 11 54.1000000  0  2G23G27
  36173733.168 9                  28187293.526 6
   3156703.646 9   2459591.969 6
 96 10 24 23 11 54.1200000  0  2G23G27
  36174391.213 9                  28187806.246 6
   3157007.052 9   2459828.587 6
 96 10 24 23 11 54.1400000  0  2G23G27
  36175049.256 9                  28188319.028 6
   3157310.484 9   2460064.878 5
 96 10 24 23 11 54.1600000  0  2G23G27
  36175707.298 9                  28188831.784 6
   3157613.925 9   2460301.401 6
 96 10 24 23 11 54.1800000  0  2G23G27
  36176365.328 9                  28189344.515 6
   3157917.389 9   2460537.984 6
 96 10 24 23 11 54.2000000  0  2G23G27
  36177023.365 9                  28189857.337 6
   3158220.851 9   2460774.507 5
 96 10 24 23 11 54.2200000  0  2G23G27
  36177681.389 9                  28190370.097 6
   3158524.333 9   2461010.675 6
 96 10 24 23 11 54.2400000  0  2G23G27
  36178339.413 9                  28190882.774 6
   3158827.834 9   2461247.183 7
 96 10 24 23 11 54.2600000  0  2G23G27
  36178997.430 9                  28191395.528 6
   3159131.351 9   2461483.704 6
 96 10 24 23 11 54.2800000  0  2G23G27
  36179655.441 9                  28191908.279 6
   3159434.865 9   2461720.147 6
 96 10 24 23 11 54.3000000  0  2G23G27
  36180313.455 9                  28192421.038 6
   3159738.410 9   2461956.543 6
 96 10 24 23 11 54.3200000  0  2G23G27
  36180971.465 9                  28192933.786 7
   3160041.963 9   2462193.470 6
 96 10 24 23 11 54.3400000  0  2G23G27
  36181629.470 9                  28193446.530 6
   3160345.519 9   2462429.752 6
 96 10 24 23 11 54.3600000  0  2G23G27
  36182287.472 9                  28193959.165 6
   3160649.104 9   2462666.346 6
 96 10 24 23 11 54.3800000  0  2G23G27
  36182945.470 9                  28194471.819 6
   3160952.696 9   2462903.262 7
 96 10 24 23 11 54.4000000  0  2G23G27
  36183603.464 9                  28194984.643 6
   3161256.308 9   2463139.602 6
 96 10 24 23 11 54.4200000  0  2G23G27
  36184261.454 9                  28195497.482 6
   3161559.926 9   2463376.088 6
 96 10 24 23 11 54.4400000  0  2G23G27
  36184919.439 9                  28196010.171 6
   3161863.559 9   2463612.812 6
 96 10 24 23 11 54.4600000  0  2G23G27
  36185577.416 9                  28196522.956 6
   3162167.204 9   2463849.141 6
 96 10 24 23 11 54.4800000  0  2G23G27
  36186235.399 9                  28197035.487 5
   3162470.861 9   2464086.043 6
 96 10 24 23 11 54.5000000  0  2G23G27
  36186893.377 9                  28197548.166 7
   3162774.531 9   2464322.677 5
 96 10 24 23 11 54.5200000  0  2G23G27
  36187551.346 9                  28198061.002 7
   3163078.225 9   2464559.702 7
 96 10 24 23 11 54.5400000  0  2G23G27
  36188209.322 9                  28198573.626 6
   3163381.930 9   2464796.025 6
 96 10 24 23 11 54.5600000  0  2G23G27
  36188867.293 9                  28199086.474 6
   3163685.657 9   2465032.713 6
 96 10 24 23 11 54.5800000  0  2G23G27
  36189525.261 9                  28199599.185 6
   3163989.386 9   2465269.463 6
 96 10 24 23 11 54.6000000  0  2G23G27
  36190183.236 9                  28200111.772 5
   3164293.150 9   2465505.731 6
 96 10 24 23 11 54.6200000  0  2G23G27
  36190841.204 9                  28200624.507 6
   3164596.920 9   2465742.404 6
 96 10 24 23 11 54.6400000  0  2G23G27
  36191499.171 9                  28201137.174 6
   3164900.701 9   2465979.169 6
 96 10 24 23 11 54.6600000  0  2G23G27
  36192157.131 9                  28201649.977 6
   3165204.496 9   2466216.307 6
 96 10 24 23 11 54.6800000  0  2G23G27
  36192815.086 9                  28202162.694 6
   3165508.310 9   2466452.901 5
 96 10 24 23 11 54.7000000  0  2G23G27
  36193473.037 9                  28202675.279 6
   3165812.133 9   2466689.959 6
 96 10 24 23 11 54.7200000  0  2G23G27
  36194130.981 9                  28203187.990 6
   3166115.975 9   2466926.322 6
 96 10 24 23 11 54.7400000  0  2G23G27
  36194788.919 9                  28203700.694 6
   3166419.815 9   2467163.083 6
 96 10 24 23 11 54.7600000  0  2G23G27
  36195446.862 9                  28204213.352 6
   3166723.675 9   2467399.799 6
 96 10 24 23 11 54.7800000  0  2G23G27
  36196104.797 9                  28204725.993 6
   3167027.551 9   2467636.419 7
 96 10 24 23 11 54.8000000  0  2G23G27
  36196762.726 9                  28205238.799 6
   3167331.441 9   2467873.436 5
 96 10 24 23 11 54.8200000  0  2G23G27
  36197420.651 9                  28205751.351 6
   3167635.335 9   2468110.252 6
 96 10 24 23 11 54.8400000  0  2G23G27
  36198078.574 9                  28206264.101 6
   3167939.260 9   2468347.266 6
 96 10 24 23 11 54.8600000  0  2G23G27
  36198736.485 9                  28206776.735 6
   3168243.174 9   2468583.724 7
 96 10 24 23 11 54.8800000  0  2G23G27
  36199394.402 9                  28207289.497 6
   3168547.118 9   2468820.531 6
 96 10 24 23 11 54.9000000  0  2G23G27
  36200052.310 9                  28207802.046 6
   3168851.074 9   2469057.528 6
 96 10 24 23 11 54.9200000  0  2G23G27
  36200710.213 9                  28208314.623 7
   3169155.029 9   2469294.202 6
 96 10 24 23 11 54.9400000  0  2G23G27
  36201368.113 9                  28208827.396 6
   3169459.013 9   2469531.394 6
 96 10 24 23 11 54.9600000  0  2G23G27
  36202026.003 9                  28209339.939 6
   3169763.015 9   2469768.432 7
 96 10 24 23 11 54.9800000  0  2G23G27
  36202683.901 9                  28209852.673 6
   3170067.013 9   2470005.221 6
 96 10 24 23 11 55.0000000  0  2G23G27
  36203341.792 9                  28210365.297 5  28481637.860    28481644.262
   3170371.026 9   2470241.766 6  20676643.504    20676644.005
 96 10 24 23 11 55.0200000  0  2G23G27
  36203999.677 9                  28210878.047 6
   3170675.067 9   2470478.853 6
 96 10 24 23 11 55.0400000  0  2G23G27
  36204657.549 9                  28211390.644 6
   3170979.106 9   2470715.394 6
 96 10 24 23 11 55.0600000  0  2G23G27
  36205315.430 9                  28211903.202 6
   3171283.163 9   2470952.706 6
 96 10 24 23 11 55.0800000  0  2G23G27
  36205973.299 9                  28212415.866 6
   3171587.236 9   2471189.770 6
 96 10 24 23 11 55.1000000  0  2G23G27
  36206631.163 9                  28212928.391 6
   3171891.313 9   2471426.574 6
 96 10 24 23 11 55.1200000  0  2G23G27
  36207289.020 9                  28213440.967 6
   3172195.407 9   2471663.762 6
 96 10 24 23 11 55.1400000  0  2G23G27
  36207946.875 9                  28213953.593 6
   3172499.509 9   2471900.391 5
 96 10 24 23 11 55.1600000  0  2G23G27
  36208604.724 9                  28214466.348 6
   3172803.623 9   2472137.108 6
 96 10 24 23 11 55.1800000  0  2G23G27
  36209262.567 9                  28214978.886 6
   3173107.760 9   2472374.589 5
 96 10 24 23 11 55.2000000  0  2G23G27
  36209920.407 9                  28215491.582 6
   3173411.904 9   2472611.549 4
 96 10 24 23 11 55.2200000  0  2G23G27
  36210578.246 9                  28216004.195 6
   3173716.060 9   2472848.496 1
 96 10 24 23 11 55.2400000  0  2G23G27
  36211236.078 9                  28216516.966 6
   3174020.243 9   2473085.543 5
 96 10 24 23 11 55.2600000  0  2G23G27
  36211893.903 9                  28217029.578 6
   3174324.415 9   2473322.262 5
 96 10 24 23 11 55.2800000  0  2G23G27
  36212551.727 9                  28217542.036 5
   3174628.623 9   2473559.243 6
 96 10 24 23 11 55.3000000  0  2G23G27
  36213209.544 9                  28218054.368 6
   3174932.826 9   2473796.652 6
 96 10 24 23 11 55.3200000  0  2G23G27
  36213867.364 9                  28218567.028 6
   3175237.050 9   2474033.712 6
 96 10 24 23 11 55.3400000  0  2G23G27
  36214525.173 9                  28219079.677 6
   3175541.284 9   2474270.714 7
 96 10 24 23 11 55.3600000  0  2G23G27
  36215182.980 9                  28219592.258 6
   3175845.531 9   2474507.932 6
 96 10 24 23 11 55.3800000  0  2G23G27
  36215840.777 9                  28220104.794 7
   3176149.793 9   2474744.863 6
 96 10 24 23 11 55.4000000  0  2G23G27
  36216498.577 9                  28220617.238 6
   3176454.073 9   2474982.065 6
 96 10 24 23 11 55.4200000  0  2G23G27
  36217156.373 9                  28221129.893 6
   3176758.366 9   2475219.122 6
 96 10 24 23 11 55.4400000  0  2G23G27
  36217814.163 9                  28221642.487 6
   3177062.664 9   2475456.152 5
 96 10 24 23 11 55.4600000  0  2G23G27
  36218471.955 9                  28222155.135 6
   3177366.984 9   2475693.256 6
 96 10 24 23 11 55.4800000  0  2G23G27
  36219129.733 9                  28222667.693 6
   3177671.302 9   2475930.655 7
 96 10 24 23 11 55.5000000  0  2G23G27
  36219787.506 9                  28223180.345 6
   3177975.642 9   2476167.616 5
 96 10 24 23 11 55.5200000  0  2G23G27
  36220445.281 9                  28223692.830 6
   3178280.003 9   2476404.817 6
 96 10 24 23 11 55.5400000  0  2G23G27
  36221103.056 9                  28224205.231 6
   3178584.376 9   2476641.840 6
 96 10 24 23 11 55.5600000  0  2G23G27
  36221760.836 9                  28224717.852 6
   3178888.766 9   2476879.312 5
 96 10 24 23 11 55.5800000  0  2G23G27
  36222418.608 9                  28225230.352 6
   3179193.178 9   2477116.680 6
 96 10 24 23 11 55.6000000  0  2G23G27
  36223076.378 9                  28225742.969 6
   3179497.593 9   2477353.560 6
 96 10 24 23 11 55.6200000  0  2G23G27
  36223734.145 9                  28226255.503 6
   3179802.032 9   2477590.966 6
 96 10 24 23 11 55.6400000  0  2G23G27
  36224391.906 9                  28226768.102 6
   3180106.486 9   2477828.076 6
 96 10 24 23 11 55.6600000  0  2G23G27
  36225049.659 9                  28227280.622 6
   3180410.945 9   2478065.161 6
 96 10 24 23 11 55.6800000  0  2G23G27
  36225707.410 9                  28227793.191 6
   3180715.412 9   2478302.357 6
 96 10 24 23 11 55.7000000  0  2G23G27
  36226365.156 9                  28228305.738 6
   3181019.893 9   2478539.821 6
 96 10 24 23 11 55.7200000  0  2G23G27
  36227022.901 9                  28228818.113 6
   3181324.393 9   2478776.909 6
 96 10 24 23 11 55.7400000  0  2G23G27
  36227680.635 9                  28229330.749 6
   3181628.901 9   2479014.177 5
 96 10 24 23 11 55.7600000  0  2G23G27
  36228338.366 9                  28229843.240 6
   3181933.428 9   2479251.695 5
 96 10 24 23 11 55.7800000  0  2G23G27
  36228996.088 9                  28230355.667 7
   3182237.959 9   2479489.054 6
 96 10 24 23 11 55.8000000  0  2G23G27
  36229653.808 9                  28230868.230 6
   3182542.503 9   2479726.358 6
 96 10 24 23 11 55.8200000  0  2G23G27
  36230311.523 9                  28231380.844 6
   3182847.065 9   2479963.495 6
 96 10 24 23 11 55.8400000  0  2G23G27
  36230969.231 9                  28231893.417 6
   3183151.647 9   2480200.872 4
 96 10 24 23 11 55.8600000  0  2G23G27
  36231626.935 9                  28232405.822 6
   3183456.227 9   2480438.064 4
 96 10 24 23 11 55.8800000  0  2G23G27
  36232284.635 9                  28232918.360 6
   3183760.819 9   2480675.521 6
 96 10 24 23 11 55.9000000  0  2G23G27
  36232942.332 9                  28233430.779 7
   3184065.425 9   2480913.228 6
 96 10 24 23 11 55.9200000  0  2G23G27
  36233600.021 9                  28233943.272 6
   3184370.049 9   2481150.465 6
 96 10 24 23 11 55.9400000  0  2G23G27
  36234257.708 9                  28234455.747 6
   3184674.693 9   2481387.660 5
 96 10 24 23 11 55.9600000  0  2G23G27
  36234915.391 9                  28234968.272 6
   3184979.343 9   2481625.143 6
 96 10 24 23 11 55.9800000  0  2G23G27
  36235573.070 9                  28235480.666 5
   3185283.992 9   2481862.345 5
 96 10 24 23 11 56.0000000  0  2G23G27
  36236230.736 9                  28235993.079 6  28487896.229    28487906.719
   3185588.668 9   2482100.072 6  20679539.183                    20679540.587
 96 10 24 23 11 56.0200000  0  2G23G27
  36236888.407 9                  28236505.461 7
   3185893.359 9   2482337.406 6
 96 10 24 23 11 56.0400000  0  2G23G27
  36237546.071 9                  28237018.036 6
   3186198.063 9   2482574.947 7
 96 10 24 23 11 56.0600000  0  2G23G27
  36238203.729 9                  28237530.551 6
   3186502.773 9   2482812.335 6
 96 10 24 23 11 56.0800000  0  2G23G27
  36238861.390 9                  28238043.145 6
   3186807.510 9   2483049.464 6
 96 10 24 23 11 56.1000000  0  2G23G27
  36239519.045 9                  28238555.460 7
   3187112.262 9   2483287.118 5
 96 10 24 23 11 56.1200000  0  2G23G27
  36240176.699 9                  28239067.994 6
   3187417.029 9   2483524.792 6
 96 10 24 23 11 56.1400000  0  2G23G27
  36240834.352 9                  28239580.376 6
   3187721.802 9   2483761.952 6
 96 10 24 23 11 56.1600000  0  2G23G27
  36241491.999 9                  28240092.722 6
   3188026.590 9   2483999.376 7
 96 10 24 23 11 56.1800000  0  2G23G27
  36242149.642 9                  28240605.272 5
   3188331.404 9   2484236.972 6
 96 10 24 23 11 56.2000000  0  2G23G27
  36242807.276 9                  28241117.813 6
   3188636.220 9   2484474.826 6
 96 10 24 23 11 56.2200000  0  2G23G27
  36243464.915 9                  28241630.148 6
   3188941.053 9   2484711.890 7
 96 10 24 23 11 56.2400000  0  2G23G27
  36244122.552 9                  28242142.629 6
   3189245.895 9   2484949.453 6
 96 10 24 23 11 56.2600000  0  2G23G27
  36244780.185 9                  28242655.062 6
   3189550.751 9   2485187.349 7
 96 10 24 23 11 56.2800000  0  2G23G27
  36245437.809 9                  28243167.508 6
   3189855.626 9   2485424.717 6
 96 10 24 23 11 56.3000000  0  2G23G27
  36246095.433 9                  28243680.073 6
   3190160.505 9   2485662.258 6
 96 10 24 23 11 56.3200000  0  2G23G27
  36246753.055 9                  28244192.511 6
   3190465.398 9   2485899.977 7
 96 10 24 23 11 56.3400000  0  2G23G27
  36247410.674 9                  28244704.692 6
   3190770.301 9   2486137.623 5
 96 10 24 23 11 56.3600000  0  2G23G27
  36248068.289 9                  28245217.289 6
   3191075.221 9   2486375.325 7
 96 10 24 23 11 56.3800000  0  2G23G27
  36248725.901 9                  28245729.621 7
   3191380.157 9   2486612.838 6
 96 10 24 23 11 56.4000000  0  2G23G27
  36249383.507 9                  28246242.086 6
   3191685.106 9   2486850.319 6
 96 10 24 23 11 56.4200000  0  2G23G27
  36250041.110 9                  28246754.581 5
   3191990.067 9   2487087.910 6
 96 10 24 23 11 56.4400000  0  2G23G27
  36250698.706 9                  28247267.055 6
   3192295.042 9   2487325.578 6
 96 10 24 23 11 56.4600000  0  2G23G27
  36251356.310 9                  28247779.498 6
   3192600.032 9   2487563.012 6
 96 10 24 23 11 56.4800000  0  2G23G27
  36252013.907 9                  28248291.920 6
   3192905.039 9   2487800.576 6
 96 10 24 23 11 56.5000000  0  2G23G27
  36252671.503 9                  28248804.169 6
   3193210.045 9   2488038.657 6
 96 10 24 23 11 56.5200000  0  2G23G27
  36253329.092 9                  28249316.643 6
   3193515.072 9   2488276.280 6
 96 10 24 23 11 56.5400000  0  2G23G27
  36253986.683 9                  28249829.086 6
   3193820.117 9   2488514.042 6
 96 10 24 23 11 56.5600000  0  2G23G27
  36254644.284 9                  28250341.470 6
   3194125.180 9   2488751.733 6
 96 10 24 23 11 56.5800000  0  2G23G27
  36255301.875 9                  28250853.839 7
   3194430.260 9   2488989.492 6
 96 10 24 23 11 56.6000000  0  2G23G27
  36255959.461 9                  28251366.317 6
   3194735.348 9   2489227.159 4
 96 10 24 23 11 56.6200000  0  2G23G27
  36256617.043 9                  28251878.809 6
   3195040.458 9   2489464.986 6
 96 10 24 23 11 56.6400000  0  2G23G27
  36257274.624 9                  28252391.182 6
   3195345.574 9   2489702.607 4
 96 10 24 23 11 56.6600000  0  2G23G27
  36257932.198 9                  28252903.569 6
   3195650.693 9   2489940.408 6
 96 10 24 23 11 56.6800000  0  2G23G27
  36258589.766 9                  28253416.105 6
   3195955.841 9   2490178.182 6
 96 10 24 23 11 56.7000000  0  2G23G27
  36259247.324 9                  28253928.472 6
   3196260.993 9   2490415.845 6
 96 10 24 23 11 56.7200000  0  2G23G27
  36259904.882 9                  28254440.821 6
   3196566.157 9   2490653.775 6
 96 10 24 23 11 56.7400000  0  2G23G27
  36260562.438 9                  28254953.300 7
   3196871.343 9   2490891.462 6
 96 10 24 23 11 56.7600000  0  2G23G27
  36261219.989 9                  28255465.639 6
   3197176.535 9   2491129.284 6
 96 10 24 23 11 56.7800000  0  2G23G27
  36261877.531 9                  28255977.786 6
   3197481.751 9   2491367.149 6
 96 10 24 23 11 56.8000000  0  2G23G27
  36262535.072 9                  28256490.264 7
   3197786.971 9   2491604.629 6
 96 10 24 23 11 56.8200000  0  2G23G27
  36263192.606 9                  28257002.720 6
   3198092.205 9   2491842.879 5
 96 10 24 23 11 56.8400000  0  2G23G27
  36263850.141 9                  28257515.047 6
   3198397.451 9   2492080.543 4
 96 10 24 23 11 56.8600000  0  2G23G27
  36264507.667 9                  28258027.413 6
   3198702.722 9   2492318.641 6
 96 10 24 23 11 56.8800000  0  2G23G27
  36265165.190 9                  28258539.680 6
   3199007.986 9   2492556.324 5
 96 10 24 23 11 56.9000000  0  2G23G27
  36265822.705 9                  28259052.064 6
   3199313.272 9   2492794.483 6
 96 10 24 23 11 56.9200000  0  2G23G27
  36266480.222 9                  28259564.541 7
   3199618.582 9   2493032.504 7
 96 10 24 23 11 56.9400000  0  2G23G27
  36267137.732 9                  28260076.827 6
   3199923.887 9   2493270.247 5
 96 10 24 23 11 56.9600000  0  2G23G27
  36267795.234 9                  28260589.242 6
   3200229.207 9   2493508.218 5
 96 10 24 23 11 56.9800000  0  2G23G27
  36268452.740 9                  28261101.535 6
   3200534.547 9   2493745.985 4
 96 10 24 23 11 57.0000000  0  2G23G27
  36269110.231 9                  28261613.922 6  28494152.617    28494161.670
   3200839.907 9   2493984.056 6  20682441.551                    20682442.747
 96 10 24 23 11 57.0200000  0  2G23G27
  36269767.730 9                  28262126.212 6
   3201145.271 9   2494222.099 6
 96 10 24 23 11 57.0400000  0  2G23G27
  36270425.221 9                  28262638.622 6
   3201450.650 9   2494459.834 5
 96 10 24 23 11 57.0600000  0  2G23G27
  36271082.706 9                  28263150.875 6
   3201756.053 9   2494697.804 6
 96 10 24 23 11 57.0800000  0  2G23G27
  36271740.186 9                  28263663.309 6
   3202061.459 9   2494936.074 6
 96 10 24 23 11 57.1000000  0  2G23G27
  36272397.672 9                  28264175.647 6
   3202366.869 9   2495173.645 6
 96 10 24 23 11 57.1200000  0  2G23G27
  36273055.144 9                  28264687.841 6
   3202672.300 9   2495411.657 6
 96 10 24 23 11 57.1400000  0  2G23G27
  36273712.613 9                  28265200.204 6
   3202977.749 9   2495649.647 6
 96 10 24 23 11 57.1600000  0  2G23G27
  36274370.080 9                  28265712.468 6
   3203283.217 9   2495888.036 5
 96 10 24 23 11 57.1800000  0  2G23G27
  36275027.546 9                  28266224.963 6
   3203588.686 9   2496125.618 6
 96 10 24 23 11 57.2000000  0  2G23G27
  36275685.006 9                  28266737.346 6
   3203894.166 9   2496363.816 6
 96 10 24 23 11 57.2200000  0  2G23G27
  36276342.458 9                  28267249.517 6
   3204199.661 9   2496601.945 6
 96 10 24 23 11 57.2400000  0  2G23G27
  36276999.915 9                  28267761.697 6
   3204505.175 9   2496839.725 7
 96 10 24 23 11 57.2600000  0  2G23G27
  36277657.366 9                  28268274.190 6
   3204810.711 9   2497078.097 5
 96 10 24 23 11 57.2800000  0  2G23G27
  36278314.812 9                  28268786.559 6
   3205116.249 9   2497316.241 6
 96 10 24 23 11 57.3000000  0  2G23G27
  36278972.256 9                  28269298.860 6
   3205421.813 9   2497554.286 6
 96 10 24 23 11 57.3200000  0  2G23G27
  36279629.693 9                  28269810.989 6
   3205727.381 9   2497792.169 6
 96 10 24 23 11 57.3400000  0  2G23G27
  36280287.130 9                  28270323.314 5
   3206032.958 9   2498030.727 6
 96 10 24 23 11 57.3600000  0  2G23G27
  36280944.568 9                  28270835.667 4
   3206338.551 9   2498268.453 7
 96 10 24 23 11 57.3800000  0  2G23G27
  36281601.998 9                  28271347.947 6
   3206644.166 9   2498506.575 6
 96 10 24 23 11 57.4000000  0  2G23G27
  36282259.429 9                  28271860.282 7
   3206949.785 9   2498744.926 5
 96 10 24 23 11 57.4200000  0  2G23G27
  36282916.853 9                  28272372.481 6
   3207255.433 9   2498983.066 5
 96 10 24 23 11 57.4400000  0  2G23G27
  36283574.268 9                  28272884.842 6
   3207561.081 9   2499221.064 6
 96 10 24 23 11 57.4600000  0  2G23G27
  36284231.686 9                  28273397.028 6
   3207866.751 9   2499459.234 6
 96 10 24 23 11 57.4800000  0  2G23G27
  36284889.092 9                  28273909.274 6
   3208172.431 9   2499697.575 6
 96 10 24 23 11 57.5000000  0  2G23G27
  36285546.511 9                  28274421.570 6
   3208478.124 9   2499935.764 5
 96 10 24 23 11 57.5200000  0  2G23G27
  36286203.918 9                  28274933.919 6
   3208783.832 9   2500174.007 6
 96 10 24 23 11 57.5400000  0  2G23G27
  36286861.326 9                  28275446.202 5
   3209089.552 9   2500412.481 6
 96 10 24 23 11 57.5600000  0  2G23G27
  36287518.728 9                  28275958.553 6
   3209395.311 9   2500650.537 6
 96 10 24 23 11 57.5800000  0  2G23G27
  36288176.132 9                  28276470.851 6
   3209701.064 9   2500888.917 6
 96 10 24 23 11 57.6000000  0  2G23G27
  36288833.544 9                  28276983.128 6
   3210006.847 9   2501127.025 6
 96 10 24 23 11 57.6200000  0  2G23G27
  36289490.948 9                  28277495.281 7
   3210312.641 9   2501365.177 6
 96 10 24 23 11 57.6400000  0  2G23G27
  36290148.352 9                  28278007.630 7
   3210618.457 9   2501603.623 4
 96 10 24 23 11 57.6600000  0  2G23G27
  36290805.759 9                  28278519.678 7
   3210924.275 9   2501842.107 6
 96 10 24 23 11 57.6800000  0  2G23G27
  36291463.164 9                  28279032.100 7
   3211230.137 9   2502080.283 6
 96 10 24 23 11 57.7000000  0  2G23G27
  36292120.569 9                  28279544.402 6
   3211535.997 9   2502318.497 6
 96 10 24 23 11 57.7200000  0  2G23G27
  36292777.966 9                  28280056.632 6
   3211841.875 9   2502556.771 6
 96 10 24 23 11 57.7400000  0  2G23G27
  36293435.362 9                  28280568.908 6
   3212147.762 9   2502795.159 6
 96 10 24 23 11 57.7600000  0  2G23G27
  36294092.761 9                  28281081.241 6
   3212453.681 9   2503033.694 6
 96 10 24 23 11 57.7800000  0  2G23G27
  36294750.152 9                  28281593.511 6
   3212759.601 9   2503271.931 7
 96 10 24 23 11 57.8000000  0  2G23G27
  36295407.536 9                  28282105.809 6
   3213065.535 9   2503510.677 5
 96 10 24 23 11 57.8200000  0  2G23G27
  36296064.914 9                  28282618.101 6
   3213371.473 9   2503748.956 5
 96 10 24 23 11 57.8400000  0  2G23G27
  36296722.291 9                  28283130.124 7
   3213677.443 9   2503987.042 6
 96 10 24 23 11 57.8600000  0  2G23G27
  36297379.660 9                  28283642.406 6
   3213983.418 9   2504225.532 6
 96 10 24 23 11 57.8800000  0  2G23G27
  36298037.029 9                  28284154.522 5
   3214289.397 9   2504464.031 6
 96 10 24 23 11 57.9000000  0  2G23G27
  36298694.395 9                  28284667.000 6
   3214595.394 9   2504702.597 6
 96 10 24 23 11 57.9200000  0  2G23G27
  36299351.761 9                  28285179.115 6
   3214901.410 9   2504941.053 6
 96 10 24 23 11 57.9400000  0  2G23G27
  36300009.113 9                  28285691.487 7
   3215207.425 9   2505179.352 6
 96 10 24 23 11 57.9600000  0  2G23G27
  36300666.466 9                  28286203.672 6
   3215513.470 9   2505418.122 6
 96 10 24 23 11 57.9800000  0  2G23G27
  36301323.809 9                  28286716.019 6
   3215819.507 9   2505656.490 6
 96 10 24 23 11 58.0000000  0  2G23G27
  36301981.148 9                  28287228.148 7  28500407.356    28500416.046
   3216125.563 9   2505894.991 5  20685350.425                    20685352.442
 96 10 24 23 11 58.0200000  0  2G23G27
  36302638.480 9                  28287740.316 6
   3216431.635 9   2506133.480 6
 96 10 24 23 11 58.0400000  0  2G23G27
  36303295.811 9                  28288252.702 6
   3216737.720 9   2506372.158 6
 96 10 24 23 11 58.0600000  0  2G23G27
  36303953.129 9                  28288764.789 6
   3217043.820 9   2506610.304 5
 96 10 24 23 11 58.0800000  0  2G23G27
  36304610.448 9                  28289277.037 6
   3217349.931 9   2506848.944 5
 96 10 24 23 11 58.1000000  0  2G23G27
  36305267.753 9                  28289789.209 7
   3217656.047 9   2507087.587 6
 96 10 24 23 11 58.1200000  0  2G23G27
  36305925.057 9                  28290301.351 7
   3217962.175 9   2507325.688 7
 96 10 24 23 11 58.1400000  0  2G23G27
  36306582.355 9                  28290813.521 6
   3218268.323 9   2507564.622 6
 96 10 24 23 11 58.1600000  0  2G23G27
  36307239.647 9                  28291325.848 7
   3218574.475 9   2507803.435 6
 96 10 24 23 11 58.1800000  0  2G23G27
  36307896.933 9                  28291837.952 7
   3218880.642 9   2508041.744 6
 96 10 24 23 11 58.2000000  0  2G23G27
  36308554.215 9                  28292350.173 7
   3219186.827 9   2508280.494 6
 96 10 24 23 11 58.2200000  0  2G23G27
  36309211.490 9                  28292862.268 7
   3219493.024 9   2508518.888 4
 96 10 24 23 11 58.2400000  0  2G23G27
  36309868.756 9                  28293374.445 7
   3219799.229 9   2508757.290 6
 96 10 24 23 11 58.2600000  0  2G23G27
  36310526.016 9                  28293886.571 6
   3220105.446 9   2508996.144 6
 96 10 24 23 11 58.2800000  0  2G23G27
  36311183.276 9                  28294398.796 6
   3220411.678 9   2509234.523 6
 96 10 24 23 11 58.3000000  0  2G23G27
  36311840.527 9                  28294910.917 6
   3220717.926 9   2509473.339 6
 96 10 24 23 11 58.3200000  0  2G23G27
  36312497.772 9                  28295423.048 6
   3221024.175 9   2509712.182 6
 96 10 24 23 11 58.3400000  0  2G23G27
  36313155.012 9                  28295935.087 6
   3221330.451 9   2509950.403 6
 96 10 24 23 11 58.3600000  0  2G23G27
  36313812.254 9                  28296447.266 6
   3221636.729 9   2510189.384 6
 96 10 24 23 11 58.3800000  0  2G23G27
  36314469.489 9                  28296959.484 6
   3221943.025 9   2510427.978 7
 96 10 24 23 11 58.4000000  0  2G23G27
  36315126.714 9                  28297471.600 6
   3222249.328 9   2510666.439 6
 96 10 24 23 11 58.4200000  0  2G23G27
  36315783.942 9                  28297983.666 7
   3222555.644 9   2510905.445 6
 96 10 24 23 11 58.4400000  0  2G23G27
  36316441.166 9                  28298495.973 6
   3222861.978 9   2511143.975 6
 96 10 24 23 11 58.4600000  0  2G23G27
  36317098.395 9                  28299007.998 6
   3223168.330 9   2511382.759 6
 96 10 24 23 11 58.4800000  0  2G23G27
  36317755.610 9                  28299520.191 5
   3223474.680 9   2511621.450 6
 96 10 24 23 11 58.5000000  0  2G23G27
  36318412.820 9                  28300032.258 6
   3223781.053 9   2511860.088 6
 96 10 24 23 11 58.5200000  0  2G23G27
  36319070.031 9                  28300544.264 6
   3224087.449 9   2512098.916 7
 96 10 24 23 11 58.5400000  0  2G23G27
  36319727.244 9                  28301056.352 6
   3224393.841 9   2512337.702 5
 96 10 24 23 11 58.5600000  0  2G23G27
  36320384.467 9                  28301568.609 6
   3224700.265 9   2512576.531 5
 96 10 24 23 11 58.5800000  0  2G23G27
  36321041.680 9                  28302080.645 6
   3225006.697 9   2512815.467 6
 96 10 24 23 11 58.6000000  0  2G23G27
  36321698.886 9                  28302592.739 6
   3225313.140 9   2513053.758 6
 96 10 24 23 11 58.6200000  0  2G23G27
  36322356.097 9                  28303104.828 6
   3225619.610 9   2513292.831 6
 96 10 24 23 11 58.6400000  0  2G23G27
  36323013.299 9                  28303616.963 6
   3225926.081 9   2513531.610 6
 96 10 24 23 11 58.6600000  0  2G23G27
  36323670.493 9                  28304129.281 6
   3226232.571 9   2513770.378 6
 96 10 24 23 11 58.6800000  0  2G23G27
  36324327.688 9                  28304641.380 6
   3226539.065 9   2514009.421 7
 96 10 24 23 11 58.7000000  0  2G23G27
  36324984.878 9                  28305153.365 6
   3226845.578 9   2514247.876 6
 96 10 24 23 11 58.7200000  0  2G23G27
  36325642.059 9                  28305665.449 6
   3227152.095 9   2514486.946 6
 96 10 24 23 11 58.7400000  0  2G23G27
  36326299.236 9                  28306177.642 6
   3227458.627 9   2514725.633 7
 96 10 24 23 11 58.7600000  0  2G23G27
  36326956.409 9                  28306689.708 6
   3227765.184 9   2514964.719 5
 96 10 24 23 11 58.7800000  0  2G23G27
  36327613.579 9                  28307201.722 6
   3228071.739 9   2515203.299 6
 96 10 24 23 11 58.8000000  0  2G23G27
  36328270.746 9                  28307713.873 6
   3228378.317 9   2515442.492 5
 96 10 24 23 11 58.8200000  0  2G23G27
  36328927.907 9                  28308225.990 6
   3228684.900 9   2515681.252 5
 96 10 24 23 11 58.8400000  0  2G23G27
  36329585.057 9                  28308737.978 7
   3228991.492 9   2515920.409 6
 96 10 24 23 11 58.8600000  0  2G23G27
  36330242.201 9                  28309250.189 6
   3229298.108 9   2516158.929 6
 96 10 24 23 11 58.8800000  0  2G23G27
  36330899.345 9                  28309762.103 6
   3229604.735 9   2516397.858 5
 96 10 24 23 11 58.9000000  0  2G23G27
  36331556.479 9                  28310274.255 6
   3229911.361 9   2516636.933 6
 96 10 24 23 11 58.9200000  0  2G23G27
  36332213.609 9                  28310786.439 7
   3230218.006 9   2516875.955 5
 96 10 24 23 11 58.9400000  0  2G23G27
  36332870.732 9                  28311298.379 6
   3230524.678 9   2517114.711 5
 96 10 24 23 11 58.9600000  0  2G23G27
  36333527.852 9                  28311810.373 6
   3230831.344 9   2517353.663 5
 96 10 24 23 11 58.9800000  0  2G23G27
  36334184.973 9                  28312322.452 6
   3231138.027 9   2517592.865 5
 96 10 24 23 11 59.0000000  0  2G23G27
  36334842.085 9                  28312834.416 6  28506660.332    28506666.733
   3231444.726 9   2517831.866 6  20688265.425                    20688268.241
 96 10 24 23 11 59.0200000  0  2G23G27
  36335499.193 9                  28313346.603 6
   3231751.430 9   2518070.881 6
 96 10 24 23 11 59.0400000  0  2G23G27
  36336156.299 9                  28313858.716 6
   3232058.159 9   2518309.741 6
 96 10 24 23 11 59.0600000  0  2G23G27
  36336813.405 9                  28314370.666 6
   3232364.896 9   2518548.732 6
 96 10 24 23 11 59.0800000  0  2G23G27
  36337470.510 9                  28314882.824 6
   3232671.649 9   2518787.801 6
 96 10 24 23 11 59.1000000  0  2G23G27
  36338127.606 9                  28315394.900 6
   3232978.407 9   2519026.923 6
 96 10 24 23 11 59.1200000  0  2G23G27
  36338784.699 9                  28315906.649 6
   3233285.190 9   2519266.021 6
 96 10 24 23 11 59.1400000  0  2G23G27
  36339441.788 9                  28316418.682 5
   3233591.968 9   2519505.057 7
 96 10 24 23 11 59.1600000  0  2G23G27
  36340098.875 9                  28316930.856 6
   3233898.774 9   2519744.162 6
 96 10 24 23 11 59.1800000  0  2G23G27
  36340755.957 9                  28317442.873 6
   3234205.603 9   2519983.399 6
 96 10 24 23 11 59.2000000  0  2G23G27
  36341413.028 9                  28317954.861 5
   3234512.422 9   2520222.334 5
 96 10 24 23 11 59.2200000  0  2G23G27
  36342070.104 9                  28318466.888 5
   3234819.263 9   2520461.500 6
 96 10 24 23 11 59.2400000  0  2G23G27
  36342727.177 9                  28318978.996 6
   3235126.124 9   2520700.396 6
 96 10 24 23 11 59.2600000  0  2G23G27
  36343384.240 9                  28319490.934 7
   3235432.986 9   2520939.717 6
 96 10 24 23 11 59.2800000  0  2G23G27
  36344041.310 9                  28320003.014 6
   3235739.876 9   2521178.838 6
 96 10 24 23 11 59.3000000  0  2G23G27
  36344698.367 9                  28320515.054 6
   3236046.774 9   2521417.923 6
 96 10 24 23 11 59.3200000  0  2G23G27
  36345355.430 9                  28321026.996 6
   3236353.682 9   2521657.232 6
 96 10 24 23 11 59.3400000  0  2G23G27
  36346012.488 9                  28321538.908 6
   3236660.604 9   2521896.198 6
 96 10 24 23 11 59.3600000  0  2G23G27
  36346669.535 9                  28322050.946 6
   3236967.538 9   2522135.482 6
 96 10 24 23 11 59.3800000  0  2G23G27
  36347326.579 9                  28322562.890 6
   3237274.489 9   2522374.726 6
 96 10 24 23 11 59.4000000  0  2G23G27
  36347983.622 9                  28323074.968 6
   3237581.459 9   2522613.734 6
 96 10 24 23 11 59.4200000  0  2G23G27
  36348640.657 9                  28323587.038 6
   3237888.430 9   2522852.893 6
 96 10 24 23 11 59.4400000  0  2G23G27
  36349297.685 9                  28324099.038 7
   3238195.425 9   2523092.105 6
 96 10 24 23 11 59.4600000  0  2G23G27
  36349954.717 9                  28324610.967 6
   3238502.431 9   2523331.056 6
 96 10 24 23 11 59.4800000  0  2G23G27
  36350611.736 9                  28325122.965 6
   3238809.448 9   2523570.397 6
 96 10 24 23 11 59.5000000  0  2G23G27
  36351268.757 9                  28325634.945 6
   3239116.476 9   2523809.901 6
 96 10 24 23 11 59.5200000  0  2G23G27
  36351925.770 9                  28326147.019 6
   3239423.523 9   2524048.985 6
 96 10 24 23 11 59.5400000  0  2G23G27
  36352582.792 9                  28326658.948 6
   3239730.577 9   2524288.354 6
 96 10 24 23 11 59.5600000  0  2G23G27
  36353239.810 9                  28327170.888 7
   3240037.656 9   2524527.741 6
 96 10 24 23 11 59.5800000  0  2G23G27
  36353896.822 9                  28327682.708 6
   3240344.762 9   2524766.903 6
 96 10 24 23 11 59.6000000  0  2G23G27
  36354553.831 9                  28328194.813 6
   3240651.871 9   2525006.344 6
 96 10 24 23 11 59.6200000  0  2G23G27
  36355210.833 9                  28328706.727 6
   3240958.989 9   2525245.347 6
 96 10 24 23 11 59.6400000  0  2G23G27
  36355867.830 9                  28329218.868 6
   3241266.136 9   2525484.958 6
 96 10 24 23 11 59.6600000  0  2G23G27
  36356524.822 9                  28329730.845 6
   3241573.286 9   2525724.078 6
 96 10 24 23 11 59.6800000  0  2G23G27
  36357181.806 9                  28330242.773 7
   3241880.442 9   2525963.567 6
 96 10 24 23 11 59.7000000  0  2G23G27
  36357838.785 9                  28330754.656 6
   3242187.616 9   2526202.995 6
 96 10 24 23 11 59.7200000  0  2G23G27
  36358495.760 9                  28331266.622 6
   3242494.799 9   2526442.265 6
 96 10 24 23 11 59.7400000  0  2G23G27
  36359152.719 9                  28331778.556 7
   3242802.008 9   2526681.646 6
 96 10 24 23 11 59.7600000  0  2G23G27
  36359809.681 9                  28332290.408 6
   3243109.225 9   2526921.373 5
 96 10 24 23 11 59.7800000  0  2G23G27
  36360466.637 9                  28332802.280 6
   3243416.449 9   2527160.678 6
 96 10 24 23 11 59.8000000  0  2G23G27
  36361123.591 9                  28333314.231 7
   3243723.688 9   2527399.789 6
 96 10 24 23 11 59.8200000  0  2G23G27
  36361780.543 9                  28333826.283 6
   3244030.943 9   2527639.235 6
 96 10 24 23 11 59.8400000  0  2G23G27
  36362437.489 9                  28334338.188 6
   3244338.203 9   2527878.659 5
 96 10 24 23 11 59.8600000  0  2G23G27
  36363094.424 9                  28334850.022 7
   3244645.479 9   2528118.341 6
 96 10 24 23 11 59.8800000  0  2G23G27
  36363751.364 9                  28335361.720 6
   3244952.777 9   2528357.434 6
 96 10 24 23 11 59.9000000  0  2G23G27
  36364408.295 9                  28335873.755 6
   3245260.073 9   2528596.891 6
 96 10 24 23 11 59.9200000  0  2G23G27
  36365065.213 9                  28336385.853 6
   3245567.386 9   2528836.401 5
 96 10 24 23 11 59.9400000  0  2G23G27
  36365722.133 9                  28336897.595 6
   3245874.715 9   2529075.972 5
 96 10 24 23 11 59.9600000  0  2G23G27
  36366379.055 9                  28337409.578 6
   3246182.060 9   2529315.468 6
 96 10 24 23 11 59.9800000  0  2G23G27
  36367035.966 9                  28337921.484 6
   3246489.424 9   2529554.746 6
 96 10 24 23 12  0.0000000  0  2G23G27
  36367692.883 9                  28338433.311 6  28512911.141    28512918.937
   3246796.793 9   2529794.593 6  20691186.937                    20691188.002
 96 10 24 23 12  0.0200000  0  2G23G27
  36368349.783 9                  28338945.163 6
   3247104.169 9   2530034.182 6
 96 10 24 23 12  0.0400000  0  2G23G27
  36369006.684 9                  28339457.125 6
   3247411.561 9   2530273.636 6
 96 10 24 23 12  0.0600000  0  2G23G27
  36369663.589 9                  28339968.973 6
   3247718.964 9   2530512.942 6
 96 10 24 23 12  0.0800000  0  2G23G27
  36370320.489 9                  28340480.695 6
   3248026.391 9   2530752.497 6
 96 10 24 23 12  0.1000000  0  2G23G27
  36370977.383 9                  28340992.593 6
   3248333.822 9   2530992.211 6
 96 10 24 23 12  0.1200000  0  2G23G27
  36371634.282 9                  28341504.460 6
   3248641.270 9   2531231.614 6
 96 10 24 23 12  0.1400000  0  2G23G27
  36372291.164 9                  28342016.296 6
   3248948.724 9   2531471.076 6
 96 10 24 23 12  0.1600000  0  2G23G27
  36372948.038 9                  28342528.193 6
   3249256.198 9   2531710.730 6
 96 10 24 23 12  0.1800000  0  2G23G27
  36373604.927 9                  28343040.106 6
   3249563.680 9   2531950.488 5
 96 10 24 23 12  0.2000000  0  2G23G27
  36374261.803 9                  28343551.969 6
   3249871.187 9   2532190.089 6
 96 10 24 23 12  0.2200000  0  2G23G27
  36374918.672 9                  28344063.740 6
   3250178.701 9   2532429.718 6
 96 10 24 23 12  0.2400000  0  2G23G27
  36375575.538 9                  28344576.007 6
   3250486.231 9   2532669.434 6
 96 10 24 23 12  0.2600000  0  2G23G27
  36376232.409 9                  28345087.640 6
   3250793.775 9   2532908.911 6
 96 10 24 23 12  0.2800000  0  2G23G27
  36376889.268 9                  28345599.374 6
   3251101.329 9   2533148.805 6
 96 10 24 23 12  0.3000000  0  2G23G27
  36377546.118 9                  28346111.211 6
   3251408.889 9   2533388.244 5
 96 10 24 23 12  0.3200000  0  2G23G27
  36378202.971 9                  28346623.185 6
   3251716.477 9   2533628.093 5
 96 10 24 23 12  0.3400000  0  2G23G27
  36378859.821 9                  28347135.063 6
   3252024.077 9   2533867.912 6
 96 10 24 23 12  0.3600000  0  2G23G27
  36379516.668 9                  28347646.588 7
   3252331.679 9   2534107.600 6
 96 10 24 23 12  0.3800000  0  2G23G27
  36380173.504 9                  28348158.521 7
   3252639.299 9   2534347.031 6
 96 10 24 23 12  0.4000000  0  2G23G27
  36380830.339 9                  28348670.455 7
   3252946.940 9   2534587.116 6
 96 10 24 23 12  0.4200000  0  2G23G27
  36381487.168 9                  28349182.464 6
   3253254.588 9   2534826.818 7
 96 10 24 23 12  0.4400000  0  2G23G27
  36382143.998 9                  28349694.185 7
   3253562.252 9   2535066.039 6
 96 10 24 23 12  0.4600000  0  2G23G27
  36382800.824 9                  28350206.134 7
   3253869.924 9   2535306.010 4
 96 10 24 23 12  0.4800000  0  2G23G27
  36383457.640 9                  28350717.804 6
   3254177.616 9   2535545.766 6
 96 10 24 23 12  0.5000000  0  2G23G27
  36384114.454 9                  28351229.584 5
   3254485.325 9   2535785.542 6
 96 10 24 23 12  0.5200000  0  2G23G27
  36384771.271 9                  28351741.519 6
   3254793.042 9   2536025.343 6
 96 10 24 23 12  0.5400000  0  2G23G27
  36385428.082 9                  28352253.380 6
   3255100.779 9   2536265.057 5
 96 10 24 23 12  0.5600000  0  2G23G27
  36386084.900 9                  28352765.109 6
   3255408.536 9   2536504.993 5
 96 10 24 23 12  0.5800000  0  2G23G27
  36386741.719 9                  28353276.906 6
   3255716.312 9   2536744.941 6
 96 10 24 23 12  0.6000000  0  2G23G27
  36387398.529 9                  28353788.690 6
   3256024.088 9   2536984.652 7
 96 10 24 23 12  0.6200000  0  2G23G27
  36388055.339 9                  28354300.410 6
   3256331.891 9   2537224.745 6
 96 10 24 23 12  0.6400000  0  2G23G27
  36388712.149 9                  28354812.279 6
   3256639.707 9   2537464.250 6
 96 10 24 23 12  0.6600000  0  2G23G27
  36389368.954 9                  28355324.071 6
   3256947.532 9   2537704.057 6
 96 10 24 23 12  0.6800000  0  2G23G27
  36390025.755 9                  28355835.840 5
   3257255.372 9   2537944.261 5
 96 10 24 23 12  0.7000000  0  2G23G27
  36390682.544 9                  28356347.615 6
   3257563.224 9   2538184.084 6
 96 10 24 23 12  0.7200000  0  2G23G27
  36391339.325 9                  28356859.448 6
   3257871.081 9   2538423.693 5
 96 10 24 23 12  0.7400000  0  2G23G27
  36391996.108 9                  28357371.425 6
   3258178.965 9   2538664.029 6
 96 10 24 23 12  0.7600000  0  2G23G27
  36392652.899 9                  28357883.137 6
   3258486.860 9   2538903.544 6
 96 10 24 23 12  0.7800000  0  2G23G27
  36393309.688 9                  28358394.894 6
   3258794.770 9   2539143.749 6
 96 10 24 23 12  0.8000000  0  2G23G27
  36393966.472 9                  28358906.778 6
   3259102.700 9   2539383.471 5
 96 10 24 23 12  0.8200000  0  2G23G27
  36394623.261 9                  28359418.596 7
   3259410.653 9   2539623.402 6
 96 10 24 23 12  0.8400000  0  2G23G27
  36395280.042 9                  28359930.351 7
   3259718.608 9   2539863.351 6
 96 10 24 23 12  0.8600000  0  2G23G27
  36395936.821 9                  28360441.985 6
   3260026.578 9   2540103.254 6
 96 10 24 23 12  0.8800000  0  2G23G27
  36396593.597 9                  28360953.800 6
   3260334.580 9   2540343.389 6
 96 10 24 23 12  0.9000000  0  2G23G27
  36397250.374 9                  28361465.679 6
   3260642.580 9   2540583.125 6
 96 10 24 23 12  0.9200000  0  2G23G27
  36397907.140 9                  28361977.550 6
   3260950.603 9   2540823.502 5
 96 10 24 23 12  0.9400000  0  2G23G27
  36398563.902 9                  28362489.262 6
   3261258.633 9   2541063.397 6
 96 10 24 23 12  0.9600000  0  2G23G27
  36399220.661 9                  28363001.103 6
   3261566.671 9   2541303.329 7
 96 10 24 23 12  0.9800000  0  2G23G27
  36399877.414 9                  28363512.739 6
   3261874.736 9   2541543.559 6
 96 10 24 23 12  1.0000000  0  2G23G27
  36400534.165 9                  28364024.608 6  28519159.980    28519167.258
   3262182.807 8   2541783.328 6  20694114.742                    20694121.431
 96 10 24 23 12  1.0200000  0  2G23G27
  36401190.903 9                  28364536.292 6
   3262490.884 9   2542023.555 6
 96 10 24 23 12  1.0400000  0  2G23G27
  36401847.635 9                  28365047.987 6
   3262798.969 9   2542263.842 5
 96 10 24 23 12  1.0600000  0  2G23G27
  36402504.358 9                  28365559.737 6
   3263107.071 9   2542503.759 6
 96 10 24 23 12  1.0800000  0  2G23G27
  36403161.074 9                  28366071.484 6
   3263415.193 9   2542744.035 6
 96 10 24 23 12  1.1000000  0  2G23G27
  36403817.796 9                  28366583.375 6
   3263723.314 9   2542983.945 4
 96 10 24 23 12  1.1200000  0  2G23G27
  36404474.504 9                  28367095.099 7
   3264031.461 9   2543224.249 5
 96 10 24 23 12  1.1400000  0  2G23G27
  36405131.210 9                  28367606.792 6
   3264339.604 9   2543464.136 5
 96 10 24 23 12  1.1600000  0  2G23G27
  36405787.913 9                  28368118.536 6
   3264647.777 9   2543704.166 5
 96 10 24 23 12  1.1800000  0  2G23G27
  36406444.612 9                  28368630.204 6
   3264955.945 9   2543944.396 6
 96 10 24 23 12  1.2000000  0  2G23G27
  36407101.296 9                  28369141.960 6
   3265264.130 9   2544184.760 6
 96 10 24 23 12  1.2200000  0  2G23G27
  36407757.985 9                  28369653.525 6
   3265572.337 9   2544424.837 6
 96 10 24 23 12  1.2400000  0  2G23G27
  36408414.663 9                  28370165.339 6
   3265880.539 9   2544664.953 6
 96 10 24 23 12  1.2600000  0  2G23G27
  36409071.335 9                  28370677.086 5
   3266188.773 9   2544905.068 6
 96 10 24 23 12  1.2800000  0  2G23G27
  36409728.007 9                  28371188.841 5
   3266497.012 9   2545145.192 6
 96 10 24 23 12  1.3000000  0  2G23G27
  36410384.674 9                  28371700.549 7
   3266805.268 9   2545385.516 6
 96 10 24 23 12  1.3200000  0  2G23G27
  36411041.340 9                  28372212.222 6
   3267113.522 9   2545625.634 6
 96 10 24 23 12  1.3400000  0  2G23G27
  36411697.997 9                  28372723.998 6
   3267421.798 9   2545866.018 5
 96 10 24 23 12  1.3600000  0  2G23G27
  36412354.645 9                  28373235.536 6
   3267730.093 9   2546106.242 7
 96 10 24 23 12  1.3800000  0  2G23G27
  36413011.291 9                  28373747.213 6
   3268038.400 9   2546346.437 6
 96 10 24 23 12  1.4000000  0  2G23G27
  36413667.933 9                  28374258.929 6
   3268346.703 9   2546586.827 6
 96 10 24 23 12  1.4200000  0  2G23G27
  36414324.572 9                  28374770.500 6
   3268655.038 9   2546826.840 5
 96 10 24 23 12  1.4400000  0  2G23G27
  36414981.206 9                  28375282.359 7
   3268963.371 9   2547067.021 6
 96 10 24 23 12  1.4600000  0  2G23G27
  36415637.834 9                  28375793.991 6
   3269271.725 9   2547307.471 5
 96 10 24 23 12  1.4800000  0  2G23G27
  36416294.456 9                  28376305.570 6
   3269580.085 9   2547547.717 5
 96 10 24 23 12  1.5000000  0  2G23G27
  36416951.079 9                  28376817.280 6
   3269888.460 9   2547788.095 6
 96 10 24 23 12  1.5200000  0  2G23G27
  36417607.692 9                  28377329.049 6
   3270196.855 9   2548027.929 7
 96 10 24 23 12  1.5400000  0  2G23G27
  36418264.302 9                  28377840.445 6
   3270505.265 9   2548268.639 5
 96 10 24 23 12  1.5600000  0  2G23G27
  36418920.923 9                  28378352.209 6
   3270813.684 9   2548509.038 6
 96 10 24 23 12  1.5800000  0  2G23G27
  36419577.544 9                  28378863.840 6
   3271122.128 9   2548749.330 5
 96 10 24 23 12  1.6000000  0  2G23G27
  36420234.154 9                  28379375.624 6
   3271430.583 9   2548989.608 6
 96 10 24 23 12  1.6200000  0  2G23G27
  36420890.754 9                  28379887.256 6
   3271739.056 9   2549229.998 6
 96 10 24 23 12  1.6400000  0  2G23G27
  36421547.355 9                  28380398.967 6
   3272047.538 9   2549470.277 6
 96 10 24 23 12  1.6600000  0  2G23G27
  36422203.952 9                  28380910.520 6
   3272356.029 9   2549710.847 6
 96 10 24 23 12  1.6800000  0  2G23G27
  36422860.545 9                  28381422.050 6
   3272664.537 9   2549951.262 7
 96 10 24 23 12  1.7000000  0  2G23G27
  36423517.127 9                  28381933.804 6
   3272973.052 9   2550191.587 6
 96 10 24 23 12  1.7200000  0  2G23G27
  36424173.707 9                  28382445.366 6
   3273281.584 9   2550432.166 6
 96 10 24 23 12  1.7400000  0  2G23G27
  36424830.277 9                  28382956.987 6
   3273590.124 9   2550672.561 6
 96 10 24 23 12  1.7600000  0  2G23G27
  36425486.848 9                  28383468.605 6
   3273898.670 9   2550912.883 6
 96 10 24 23 12  1.7800000  0  2G23G27
  36426143.415 9                  28383980.207 6
   3274207.241 9   2551153.239 5
 96 10 24 23 12  1.8000000  0  2G23G27
  36426799.976 9                  28384491.968 6
   3274515.822 9   2551393.824 6
 96 10 24 23 12  1.8200000  0  2G23G27
  36427456.524 9                  28385003.498 6
   3274824.410 9   2551634.136 6
 96 10 24 23 12  1.8400000  0  2G23G27
  36428113.071 9                  28385515.055 6
   3275133.019 9   2551874.643 6
 96 10 24 23 12  1.8600000  0  2G23G27
  36428769.618 9                  28386026.667 7
   3275441.633 9   2552115.283 5
 96 10 24 23 12  1.8800000  0  2G23G27
  36429426.154 9                  28386538.402 6
   3275750.262 9   2552355.747 6
 96 10 24 23 12  1.9000000  0  2G23G27
  36430082.695 9                  28387049.916 5
   3276058.914 9   2552596.179 6
 96 10 24 23 12  1.9200000  0  2G23G27
  36430739.227 9                  28387561.649 6
   3276367.571 9   2552836.666 7
 96 10 24 23 12  1.9400000  0  2G23G27
  36431395.751 9                  28388073.010 6
   3276676.232 9   2553077.359 6
 96 10 24 23 12  1.9600000  0  2G23G27
  36432052.270 9                  28388584.644 6
   3276984.917 9   2553317.882 6
 96 10 24 23 12  1.9800000  0  2G23G27
  36432708.783 9                  28389096.151 7
   3277293.609 9   2553558.137 6
 96 10 24 23 12  2.0000000  0  2G23G27
  36433365.290 9                  28389607.828 6  28525407.137    28525413.633
   3277602.318 9   2553798.901 6  20697048.981                    20697046.646
 96 10 24 23 12  2.0200000  0  2G23G27
  36434021.797 9                  28390119.308 6
   3277911.035 9   2554039.774 6
 96 10 24 23 12  2.0400000  0  2G23G27
  36434678.305 9                  28390630.985 5
   3278219.764 9   2554280.012 6
 96 10 24 23 12  2.0600000  0  2G23G27
  36435334.797 9                  28391142.604 6
   3278528.514 9   2554520.480 6
 96 10 24 23 12  2.0800000  0  2G23G27
  36435991.288 9                  28391654.141 6
   3278837.270 9   2554761.221 6
 96 10 24 23 12  2.1000000  0  2G23G27
  36436647.782 9                  28392165.707 6
   3279146.043 9   2555001.694 5
 96 10 24 23 12  2.1200000  0  2G23G27
  36437304.264 9                  28392677.343 5
   3279454.831 9   2555242.341 4
 96 10 24 23 12  2.1400000  0  2G23G27
  36437960.739 9                  28393188.738 6
   3279763.620 9   2555482.880 6
 96 10 24 23 12  2.1600000  0  2G23G27
  36438617.212 9                  28393700.491 6
   3280072.431 9   2555723.402 6
 96 10 24 23 12  2.1800000  0  2G23G27
  36439273.691 9                  28394211.945 6
   3280381.255 9   2555964.187 5
 96 10 24 23 12  2.2000000  0  2G23G27
  36439930.158 9                  28394723.299 6
   3280690.099 9   2556204.688 6
 96 10 24 23 12  2.2200000  0  2G23G27
  36440586.614 9                  28395234.907 6
   3280998.947 9   2556445.527 6
 96 10 24 23 12  2.2400000  0  2G23G27
  36441243.074 9                  28395746.583 6
   3281307.818 9   2556685.872 6
 96 10 24 23 12  2.2600000  0  2G23G27
  36441899.527 9                  28396258.062 6
   3281616.686 9   2556926.985 6
 96 10 24 23 12  2.2800000  0  2G23G27
  36442555.981 9                  28396769.586 6
   3281925.578 9   2557167.351 6
 96 10 24 23 12  2.3000000  0  2G23G27
  36443212.428 9                  28397281.060 6
   3282234.479 9   2557408.280 6
 96 10 24 23 12  2.3200000  0  2G23G27
  36443868.872 9                  28397792.596 6
   3282543.403 9   2557648.876 6
 96 10 24 23 12  2.3400000  0  2G23G27
  36444525.307 9                  28398304.050 6
   3282852.330 9   2557889.735 6
 96 10 24 23 12  2.3600000  0  2G23G27
  36445181.738 9                  28398815.502 6
   3283161.273 9   2558130.538 6
 96 10 24 23 12  2.3800000  0  2G23G27
  36445838.162 9                  28399327.019 6
   3283470.231 9   2558370.964 6
 96 10 24 23 12  2.4000000  0  2G23G27
  36446494.592 9                  28399838.531 6
   3283779.196 9   2558612.068 6
 96 10 24 23 12  2.4200000  0  2G23G27
  36447151.010 9                  28400350.111 6
   3284088.185 9   2558852.845 6
 96 10 24 23 12  2.4400000  0  2G23G27
  36447807.427 9                  28400861.746 6
   3284397.176 9   2559093.432 7
 96 10 24 23 12  2.4600000  0  2G23G27
  36448463.842 9                  28401373.103 6
   3284706.185 9   2559334.279 6
 96 10 24 23 12  2.4800000  0  2G23G27
  36449120.249 9                  28401884.641 6
   3285015.215 9   2559575.036 6
 96 10 24 23 12  2.5000000  0  2G23G27
  36449776.656 9                  28402396.221 6
   3285324.245 9   2559815.892 6
 96 10 24 23 12  2.5200000  0  2G23G27
  36450433.056 9                  28402907.800 7
   3285633.294 9   2560056.907 6
 96 10 24 23 12  2.5400000  0  2G23G27
  36451089.456 9                  28403419.175 6
   3285942.360 9   2560297.536 6
 96 10 24 23 12  2.5600000  0  2G23G27
  36451745.858 9                  28403930.697 6
   3286251.457 9   2560538.299 6
 96 10 24 23 12  2.5800000  0  2G23G27
  36452402.262 9                  28404442.066 6
   3286560.568 9   2560779.273 6
 96 10 24 23 12  2.6000000  0  2G23G27
  36453058.662 9                  28404953.654 6
   3286869.683 9   2561020.015 6
 96 10 24 23 12  2.6200000  0  2G23G27
  36453715.055 9                  28405465.048 6
   3287178.816 9   2561260.786 6
 96 10 24 23 12  2.6400000  0  2G23G27
  36454371.442 9                  28405976.517 6
   3287487.951 9   2561501.793 6
 96 10 24 23 12  2.6600000  0  2G23G27
  36455027.832 9                  28406488.074 6
   3287797.114 9   2561742.831 6
 96 10 24 23 12  2.6800000  0  2G23G27
  36455684.211 9                  28406999.493 6
   3288106.277 9   2561983.547 6
 96 10 24 23 12  2.7000000  0  2G23G27
  36456340.586 9                  28407510.950 6
   3288415.463 9   2562224.501 5
 96 10 24 23 12  2.7200000  0  2G23G27
  36456996.955 9                  28408022.513 6
   3288724.657 9   2562465.430 7
 96 10 24 23 12  2.7400000  0  2G23G27
  36457653.320 9                  28408533.862 6
   3289033.875 9   2562706.650 6
 96 10 24 23 12  2.7600000  0  2G23G27
  36458309.677 9                  28409045.294 6
   3289343.084 9   2562947.600 6
 96 10 24 23 12  2.7800000  0  2G23G27
  36458966.032 9                  28409557.011 7
   3289652.321 9   2563188.303 6
 96 10 24 23 12  2.8000000  0  2G23G27
  36459622.384 9                  28410068.431 7
   3289961.577 9   2563429.312 6
 96 10 24 23 12  2.8200000  0  2G23G27
  36460278.732 9                  28410579.822 6
   3290270.827 9   2563670.445 6
 96 10 24 23 12  2.8400000  0  2G23G27
  36460935.073 9                  28411091.266 6
   3290580.099 9   2563911.121 6
 96 10 24 23 12  2.8600000  0  2G23G27
  36461591.413 9                  28411602.666 6
   3290889.396 9   2564152.166 6
 96 10 24 23 12  2.8800000  0  2G23G27
  36462247.747 9                  28412114.058 6
   3291198.685 9   2564393.430 6
 96 10 24 23 12  2.9000000  0  2G23G27
  36462904.076 9                  28412625.434 6
   3291508.002 9   2564634.446 4
 96 10 24 23 12  2.9200000  0  2G23G27
  36463560.400 9                  28413136.921 6
   3291817.322 9   2564875.361 6
 96 10 24 23 12  2.9400000  0  2G23G27
  36464216.717 9                  28413648.432 6
   3292126.650 9   2565116.491 6
 96 10 24 23 12  2.9600000  0  2G23G27
  36464873.031 9                  28414159.732 6
   3292436.011 9   2565357.578 6
 96 10 24 23 12  2.9800000  0  2G23G27
  36465529.336 9                  28414671.138 6
   3292745.380 9   2565598.709 6
 96 10 24 23 12  3.0000000  0  2G23G27
  36466185.644 9                  28415182.510 7  28531652.331    28531661.738
   3293054.746 9   2565839.848 6  20699989.540                    20699987.664
 96 10 24 23 12  3.0200000  0  2G23G27
  36466841.944 9                  28415694.042 6
   3293364.136 9   2566080.775 6
 96 10 24 23 12  3.0400000  0  2G23G27
  36467498.244 9                  28416205.407 6
   3293673.541 9   2566321.499 6
 96 10 24 23 12  3.0600000  0  2G23G27
  36468154.538 9                  28416716.779 6
   3293982.959 9   2566562.963 6
 96 10 24 23 12  3.0800000  0  2G23G27
  36468810.832 9                  28417228.114 6
   3294292.387 9   2566804.064 6
 96 10 24 23 12  3.1000000  0  2G23G27
  36469467.111 9                  28417739.550 6
   3294601.824 9   2567045.005 6
 96 10 24 23 12  3.1200000  0  2G23G27
  36470123.396 9                  28418251.032 6
   3294911.282 9   2567286.223 5
 96 10 24 23 12  3.1400000  0  2G23G27
  36470779.672 9                  28418762.378 6
   3295220.756 9   2567527.193 6
 96 10 24 23 12  3.1600000  0  2G23G27
  36471435.942 9                  28419273.876 6
   3295530.225 9   2567768.518 5
 96 10 24 23 12  3.1800000  0  2G23G27
  36472092.214 9                  28419785.117 6
   3295839.732 9   2568009.602 6
 96 10 24 23 12  3.2000000  0  2G23G27
  36472748.474 9                  28420296.668 5
   3296149.239 9   2568250.947 6
 96 10 24 23 12  3.2200000  0  2G23G27
  36473404.738 9                  28420808.032 4
   3296458.759 9   2568492.094 6
 96 10 24 23 12  3.2400000  0  2G23G27
  36474060.998 9                  28421319.545 7
   3296768.298 9   2568733.211 6
 96 10 24 23 12  3.2600000  0  2G23G27
  36474717.250 9                  28421830.754 6
   3297077.853 9   2568974.680 6
 96 10 24 23 12  3.2800000  0  2G23G27
  36475373.504 9                  28422342.110 6
   3297387.415 9   2569215.782 6
 96 10 24 23 12  3.3000000  0  2G23G27
  36476029.745 9                  28422853.616 6
   3297696.992 9   2569457.051 6
 96 10 24 23 12  3.3200000  0  2G23G27
  36476685.988 9                  28423364.957 6
   3298006.590 9   2569698.292 6
 96 10 24 23 12  3.3400000  0  2G23G27
  36477342.225 9                  28423876.127 6
   3298316.183 9   2569939.473 6
 96 10 24 23 12  3.3600000  0  2G23G27
  36477998.454 9                  28424387.480 6
   3298625.800 9   2570181.205 6
 96 10 24 23 12  3.3800000  0  2G23G27
  36478654.684 9                  28424898.832 6
   3298935.440 9   2570421.962 6
 96 10 24 23 12  3.4000000  0  2G23G27
  36479310.911 9                  28425410.258 6
   3299245.082 9   2570663.060 6
 96 10 24 23 12  3.4200000  0  2G23G27
  36479967.132 9                  28425921.639 7
   3299554.737 9   2570904.433 6
 96 10 24 23 12  3.4400000  0  2G23G27
  36480623.352 9                  28426432.870 6
   3299864.406 9   2571145.721 6
 96 10 24 23 12  3.4600000  0  2G23G27
  36481279.565 9                  28426944.277 6
   3300174.087 9   2571387.187 6
 96 10 24 23 12  3.4800000  0  2G23G27
  36481935.774 9                  28427455.504 6
   3300483.792 9   2571628.340 5
 96 10 24 23 12  3.5000000  0  2G23G27
  36482591.979 9                  28427966.860 6
   3300793.506 9   2571869.800 5
 96 10 24 23 12  3.5200000  0  2G23G27
  36483248.183 9                  28428478.217 6
   3301103.237 9   2572111.372 6
 96 10 24 23 12  3.5400000  0  2G23G27
  36483904.388 9                  28428989.634 6
   3301412.975 9   2572352.718 6
 96 10 24 23 12  3.5600000  0  2G23G27
  36484560.595 9                  28429500.892 6
   3301722.740 9   2572593.900 5
 96 10 24 23 12  3.5800000  0  2G23G27
  36485216.800 9                  28430012.381 6
   3302032.521 9   2572835.193 6
 96 10 24 23 12  3.6000000  0  2G23G27
  36485873.004 9                  28430523.586 7
   3302342.316 9   2573076.414 6
 96 10 24 23 12  3.6200000  0  2G23G27
  36486529.198 9                  28431034.991 6
   3302652.131 9   2573318.276 6
 96 10 24 23 12  3.6400000  0  2G23G27
  36487185.388 9                  28431546.349 6
   3302961.948 9   2573559.594 6
 96 10 24 23 12  3.6600000  0  2G23G27
  36487841.575 9                  28432057.704 6
   3303271.778 9   2573801.012 6
 96 10 24 23 12  3.6800000  0  2G23G27
  36488497.764 9                  28432568.813 6
   3303581.623 9   2574042.710 6
 96 10 24 23 12  3.7000000  0  2G23G27
  36489153.946 9                  28433080.086 6
   3303891.484 9   2574284.104 6
 96 10 24 23 12  3.7200000  0  2G23G27
  36489810.117 9                  28433591.442 6
   3304201.352 9   2574525.063 6
 96 10 24 23 12  3.7400000  0  2G23G27
  36490466.281 9                  28434102.750 6
   3304511.247 9   2574766.752 6
 96 10 24 23 12  3.7600000  0  2G23G27
  36491122.450 9                  28434614.057 6
   3304821.141 9   2575007.991 6
 96 10 24 23 12  3.7800000  0  2G23G27
  36491778.610 9                  28435125.266 5
   3305131.047 9   2575249.700 6
 96 10 24 23 12  3.8000000  0  2G23G27
  36492434.770 9                  28435636.614 5
   3305440.970 9   2575491.227 5
 96 10 24 23 12  3.8200000  0  2G23G27
  36493090.922 9                  28436148.052 6
   3305750.907 9   2575732.641 6
 96 10 24 23 12  3.8400000  0  2G23G27
  36493747.073 9                  28436659.364 6
   3306060.855 9   2575974.233 6
 96 10 24 23 12  3.8600000  0  2G23G27
  36494403.213 9                  28437170.651 6
   3306370.821 9   2576215.816 6
 96 10 24 23 12  3.8800000  0  2G23G27
  36495059.351 9                  28437681.984 6
   3306680.801 9   2576457.363 5
 96 10 24 23 12  3.9000000  0  2G23G27
  36495715.492 9                  28438193.186 6
   3306990.791 9   2576698.965 7
 96 10 24 23 12  3.9200000  0  2G23G27
  36496371.623 9                  28438704.413 6
   3307300.794 9   2576940.451 5
 96 10 24 23 12  3.9400000  0  2G23G27
  36497027.744 9                  28439215.698 6
   3307610.810 9   2577182.118 6
 96 10 24 23 12  3.9600000  0  2G23G27
  36497683.869 9                  28439727.024 6
   3307920.835 9   2577423.543 7
 96 10 24 23 12  3.9800000  0  2G23G27
  36498339.986 9                  28440238.245 5
   3308230.873 9   2577665.221 6
 96 10 24 23 12  4.0000000  0  2G23G27
  36498996.099 9                  28440749.474 6  28537895.721    28537903.330
   3308540.933 9   2577907.089 6  20702936.321    20702937.021
 96 10 24 23 12  4.0200000  0  2G23G27
  36499652.209 9                  28441260.801 6
   3308850.999 9   2578148.425 5
 96 10 24 23 12  4.0400000  0  2G23G27
  36500308.309 9                  28441772.041 6
   3309161.080 9   2578390.355 6
 96 10 24 23 12  4.0600000  0  2G23G27
  36500964.407 9                  28442283.285 6
   3309471.178 9   2578631.915 6
 96 10 24 23 12  4.0800000  0  2G23G27
  36501620.497 9                  28442794.533 6
   3309781.277 9   2578873.466 6
 96 10 24 23 12  4.1000000  0  2G23G27
  36502276.582 9                  28443305.804 6
   3310091.396 9   2579114.975 6
 96 10 24 23 12  4.1200000  0  2G23G27
  36502932.667 9                  28443817.026 6
   3310401.514 9   2579356.625 6
 96 10 24 23 12  4.1400000  0  2G23G27
  36503588.743 9                  28444328.305 6
   3310711.658 9   2579598.025 6
 96 10 24 23 12  4.1600000  0  2G23G27
  36504244.817 9                  28444839.606 6
   3311021.812 9   2579839.921 6
 96 10 24 23 12  4.1800000  0  2G23G27
  36504900.875 9                  28445350.838 6
   3311331.979 9   2580081.566 6
 96 10 24 23 12  4.2000000  0  2G23G27
  36505556.938 9                  28445861.990 6
   3311642.157 9   2580323.289 5
 96 10 24 23 12  4.2200000  0  2G23G27
  36506212.998 9                  28446373.252 6
   3311952.351 9   2580564.977 6
 96 10 24 23 12  4.2400000  0  2G23G27
  36506869.054 9                  28446884.474 6
   3312262.557 9   2580806.552 6
 96 10 24 23 12  4.2600000  0  2G23G27
  36507525.104 9                  28447395.636 6
   3312572.780 9   2581048.361 6
 96 10 24 23 12  4.2800000  0  2G23G27
  36508181.147 9                  28447906.814 6
   3312883.005 9   2581290.405 6
 96 10 24 23 12  4.3000000  0  2G23G27
  36508837.184 9                  28448417.920 6
   3313193.251 9   2581531.989 6
 96 10 24 23 12  4.3200000  0  2G23G27
  36509493.225 9                  28448929.091 6
   3313503.505 9   2581773.625 6
 96 10 24 23 12  4.3400000  0  2G23G27
  36510149.259 9                  28449440.414 6
   3313813.781 9   2582015.367 6
 96 10 24 23 12  4.3600000  0  2G23G27
  36510805.280 9                  28449951.618 7
   3314124.065 9   2582257.257 6
 96 10 24 23 12  4.3800000  0  2G23G27
  36511461.308 9                  28450462.860 6
   3314434.357 9   2582499.153 6
 96 10 24 23 12  4.4000000  0  2G23G27
  36512117.323 9                  28450974.026 6
   3314744.668 9   2582740.918 6
 96 10 24 23 12  4.4200000  0  2G23G27
  36512773.334 9                  28451485.177 6
   3315054.993 9   2582982.730 6
 96 10 24 23 12  4.4400000  0  2G23G27
  36513429.343 9                  28451996.382 6
   3315365.327 9   2583224.734 6
 96 10 24 23 12  4.4600000  0  2G23G27
  36514085.347 9                  28452507.587 6
   3315675.670 9   2583466.556 6
 96 10 24 23 12  4.4800000  0  2G23G27
  36514741.346 9                  28453018.762 6
   3315986.038 9   2583708.271 6
 96 10 24 23 12  4.5000000  0  2G23G27
  36515397.341 9                  28453529.939 6
   3316296.399 9   2583950.023 5
 96 10 24 23 12  4.5200000  0  2G23G27
  36516053.337 9                  28454041.017 6
   3316606.801 9   2584191.951 6
 96 10 24 23 12  4.5400000  0  2G23G27
  36516709.332 9                  28454552.173 5
   3316917.201 9   2584434.010 6
 96 10 24 23 12  4.5600000  0  2G23G27
  36517365.328 9                  28455063.354 6
   3317227.629 9   2584675.674 7
 96 10 24 23 12  4.5800000  0  2G23G27
  36518021.322 9                  28455574.518 6
   3317538.071 9   2584917.683 6
 96 10 24 23 12  4.6000000  0  2G23G27
  36518677.312 9                  28456085.688 6
   3317848.523 9   2585159.269 6
 96 10 24 23 12  4.6200000  0  2G23G27
  36519333.301 9                  28456596.806 7
   3318158.985 9   2585401.228 6
 96 10 24 23 12  4.6400000  0  2G23G27
  36519989.271 9                  28457108.093 6
   3318469.467 9   2585643.260 6
 96 10 24 23 12  4.6600000  0  2G23G27
  36520645.245 9                  28457619.238 6
   3318779.950 9   2585885.268 6
 96 10 24 23 12  4.6800000  0  2G23G27
  36521301.219 9                  28458130.307 6
   3319090.454 9   2586127.224 6
 96 10 24 23 12  4.7000000  0  2G23G27
  36521957.180 9                  28458641.284 6
   3319400.975 9   2586369.299 6
 96 10 24 23 12  4.7200000  0  2G23G27
  36522613.133 9                  28459152.678 6
   3319711.500 9   2586611.066 6
 96 10 24 23 12  4.7400000  0  2G23G27
  36523269.093 9                  28459663.881 6
   3320022.045 9   2586853.196 4
 96 10 24 23 12  4.7600000  0  2G23G27
  36523925.041 9                  28460175.010 7
   3320332.588 9   2587095.164 6
 96 10 24 23 12  4.7800000  0  2G23G27
  36524580.979 9                  28460686.046 6
   3320643.160 9   2587337.276 6
 96 10 24 23 12  4.8000000  0  2G23G27
  36525236.924 9                  28461197.084 6
   3320953.736 9   2587578.935 6
 96 10 24 23 12  4.8200000  0  2G23G27
  36525892.860 9                  28461708.334 6
   3321264.330 9   2587821.221 6
 96 10 24 23 12  4.8400000  0  2G23G27
  36526548.790 9                  28462219.393 6
   3321574.934 9   2588063.230 6
 96 10 24 23 12  4.8600000  0  2G23G27
  36527204.710 9                  28462730.549 6
   3321885.548 9   2588305.113 6
 96 10 24 23 12  4.8800000  0  2G23G27
  36527860.631 9                  28463241.668 6
   3322196.177 9   2588546.920 6
 96 10 24 23 12  4.9000000  0  2G23G27
  36528516.549 9                  28463752.832 6
   3322506.813 9   2588789.356 1
 96 10 24 23 12  4.9200000  0  2G23G27
  36529172.457 9                  28464263.859 6
   3322817.476 9   2589031.321 5
 96 10 24 23 12  4.9400000  0  2G23G27
  36529828.364 9                  28464775.072 6
   3323128.137 9   2589273.498 6
 96 10 24 23 12  4.9600000  0  2G23G27
  36530484.269 9                  28465286.082 6
   3323438.820 9   2589515.525 6
 96 10 24 23 12  4.9800000  0  2G23G27
  36531140.165 9                  28465796.999 6
   3323749.513 9   2589757.557 7
 96 10 24 23 12  5.0000000  0  2G23G27
  36531796.055 9                  28466308.073 6  28544137.039    28544147.492
   3324060.218 9   2589999.778 6  20705889.602    20705890.176
 96 10 24 23 12  5.0200000  0  2G23G27
  36532451.946 9                  28466819.273 6
   3324370.938 9   2590241.849 5
 96 10 24 23 12  5.0400000  0  2G23G27
  36533107.833 9                  28467330.596 6
   3324681.672 9   2590484.349 6
 96 10 24 23 12  5.0600000  0  2G23G27
  36533763.711 9                  28467841.550 6
   3324992.417 9   2590726.059 6
 96 10 24 23 12  5.0800000  0  2G23G27
  36534419.591 9                  28468352.589 6
   3325303.171 9   2590968.159 6
 96 10 24 23 12  5.1000000  0  2G23G27
  36535075.467 9                  28468863.558 6
   3325613.946 9   2591210.197 7
 96 10 24 23 12  5.1200000  0  2G23G27
  36535731.337 9                  28469374.750 6
   3325924.735 9   2591452.913 5
 96 10 24 23 12  5.1400000  0  2G23G27
  36536387.197 9                  28469885.798 6
   3326235.526 9   2591694.820 6
 96 10 24 23 12  5.1600000  0  2G23G27
  36537043.054 9                  28470396.760 6
   3326546.340 9   2591936.972 6
 96 10 24 23 12  5.1800000  0  2G23G27
  36537698.911 9                  28470908.043 6
   3326857.156 9   2592179.352 7
 96 10 24 23 12  5.2000000  0  2G23G27
  36538354.761 9                  28471418.916 6
   3327167.996 9   2592421.563 6
 96 10 24 23 12  5.2200000  0  2G23G27
  36539010.608 9                  28471930.018 6
   3327478.851 9   2592663.760 6
 96 10 24 23 12  5.2400000  0  2G23G27
  36539666.451 9                  28472441.205 6
   3327789.714 9   2592905.603 7
 96 10 24 23 12  5.2600000  0  2G23G27
  36540322.290 9                  28472952.245 5
   3328100.590 9   2593148.236 6
 96 10 24 23 12  5.2800000  0  2G23G27
  36540978.128 9                  28473463.156 6
   3328411.486 9   2593390.310 6
 96 10 24 23 12  5.3000000  0  2G23G27
  36541633.960 9                  28473974.230 6
   3328722.394 9   2593632.582 6
 96 10 24 23 12  5.3200000  0  2G23G27
  36542289.791 9                  28474485.298 6
   3329033.307 9   2593874.755 5
 96 10 24 23 12  5.3400000  0  2G23G27
  36542945.617 9                  28474996.457 6
   3329344.239 9   2594117.215 6
 96 10 24 23 12  5.3600000  0  2G23G27
  36543601.436 9                  28475507.474 6
   3329655.186 9   2594359.618 6
 96 10 24 23 12  5.3800000  0  2G23G27
  36544257.251 9                  28476018.550 6
   3329966.145 9   2594601.823 6
 96 10 24 23 12  5.4000000  0  2G23G27
  36544913.061 9                  28476529.528 6
   3330277.118 9   2594844.034 6
 96 10 24 23 12  5.4200000  0  2G23G27
  36545568.873 9                  28477040.550 6
   3330588.099 9   2595086.281 6
 96 10 24 23 12  5.4400000  0  2G23G27
  36546224.674 9                  28477551.494 6
   3330899.101 9   2595328.622 6
 96 10 24 23 12  5.4600000  0  2G23G27
  36546880.472 9                  28478062.428 5
   3331210.112 9   2595571.240 6
 96 10 24 23 12  5.4800000  0  2G23G27
  36547536.273 9                  28478573.419 6
   3331521.132 9   2595813.529 6
 96 10 24 23 12  5.5000000  0  2G23G27
  36548192.064 9                  28479084.406 6
   3331832.175 9   2596055.818 6
 96 10 24 23 12  5.5200000  0  2G23G27
  36548847.851 9                  28479595.481 6
   3332143.230 9   2596298.256 5
 96 10 24 23 12  5.5400000  0  2G23G27
  36549503.637 9                  28480106.654 6
   3332454.303 9   2596540.598 6
 96 10 24 23 12  5.5600000  0  2G23G27
  36550159.424 9                  28480617.592 6
   3332765.392 9   2596782.795 6
 96 10 24 23 12  5.5800000  0  2G23G27
  36550815.217 9                  28481128.549 6
   3333076.506 9   2597025.370 5
 96 10 24 23 12  5.6000000  0  2G23G27
  36551471.004 9                  28481639.560 6
   3333387.624 9   2597268.019 6
 96 10 24 23 12  5.6200000  0  2G23G27
  36552126.782 9                  28482150.645 6
   3333698.758 9   2597510.362 5
 96 10 24 23 12  5.6400000  0  2G23G27
  36552782.568 9                  28482661.502 7
   3334009.903 9   2597752.689 6
 96 10 24 23 12  5.6600000  0  2G23G27
  36553438.337 9                  28483172.534 7
   3334321.053 9   2597995.081 6
 96 10 24 23 12  5.6800000  0  2G23G27
  36554094.107 9                  28483683.559 6
   3334632.230 9   2598237.981 7
 96 10 24 23 12  5.7000000  0  2G23G27
  36554749.871 9                  28484194.553 6
   3334943.416 9   2598480.145 6
 96 10 24 23 12  5.7200000  0  2G23G27
  36555405.623 9                  28484705.546 6
   3335254.615 9   2598722.592 6
 96 10 24 23 12  5.7400000  0  2G23G27
  36556061.380 9                  28485216.563 6
   3335565.817 9   2598964.960 6
 96 10 24 23 12  5.7600000  0  2G23G27
  36556717.126 9                  28485727.645 6
   3335877.046 9   2599207.982 6
 96 10 24 23 12  5.7800000  0  2G23G27
  36557372.867 9                  28486238.529 6
   3336188.279 9   2599450.211 6
 96 10 24 23 12  5.8000000  0  2G23G27
  36558028.612 9                  28486749.466 6
   3336499.532 9   2599692.541 6
 96 10 24 23 12  5.8200000  0  2G23G27
  36558684.346 9                  28487260.326 6
   3336810.798 9   2599935.304 6
 96 10 24 23 12  5.8400000  0  2G23G27
  36559340.082 9                  28487771.292 6
   3337122.068 9   2600177.883 6
 96 10 24 23 12  5.8600000  0  2G23G27
  36559995.813 9                  28488282.513 7
   3337433.358 9   2600420.282 6
 96 10 24 23 12  5.8800000  0  2G23G27
  36560651.531 9                  28488793.386 6
   3337744.656 9   2600663.160 6
 96 10 24 23 12  5.9000000  0  2G23G27
  36561307.260 9                  28489304.292 5
   3338055.967 9   2600905.382 6
 96 10 24 23 12  5.9200000  0  2G23G27
  36561962.979 9                  28489815.209 6
   3338367.299 9   2601148.340 4
 96 10 24 23 12  5.9400000  0  2G23G27
  36562618.681 9                  28490326.034 6
   3338678.641 9   2601390.795 6
 96 10 24 23 12  5.9600000  0  2G23G27
  36563274.391 9                  28490837.059 6
   3338989.997 9   2601633.309 6
 96 10 24 23 12  5.9800000  0  2G23G27
  36563930.098 9                  28491348.140 5
   3339301.358 9   2601875.915 6
 96 10 24 23 12  6.0000000  0  2G23G27
  36564585.794 9                  28491859.077 5  28550376.632    28550390.570
   3339612.743 9   2602118.628 5  20708849.081                    20708852.885
 96 10 24 23 12  6.0200000  0  2G23G27
  36565241.484 9                  28492370.073 5
   3339924.134 9   2602361.344 6
 96 10 24 23 12  6.0400000  0  2G23G27
  36565897.174 9                  28492880.778 6
   3340235.537 9   2602603.864 6
 96 10 24 23 12  6.0600000  0  2G23G27
  36566552.862 9                  28493391.657 6
   3340546.965 9   2602846.588 6
 96 10 24 23 12  6.0800000  0  2G23G27
  36567208.549 9                  28493902.668 6
   3340858.397 9   2603088.938 6
 96 10 24 23 12  6.1000000  0  2G23G27
  36567864.228 9                  28494413.569 5
   3341169.850 9   2603331.676 7
 96 10 24 23 12  6.1200000  0  2G23G27
  36568519.910 9                  28494924.465 6
   3341481.319 9   2603574.800 6
 96 10 24 23 12  6.1400000  0  2G23G27
  36569175.579 9                  28495435.443 6
   3341792.796 9   2603817.506 6
 96 10 24 23 12  6.1600000  0  2G23G27
  36569831.251 9                  28495946.585 6
   3342104.292 9   2604060.188 6
 96 10 24 23 12  6.1800000  0  2G23G27
  36570486.919 9                  28496457.370 6
   3342415.793 9   2604302.839 6
 96 10 24 23 12  6.2000000  0  2G23G27
  36571142.582 9                  28496968.353 6
   3342727.308 9   2604545.546 6
 96 10 24 23 12  6.2200000  0  2G23G27
  36571798.238 9                  28497479.290 6
   3343038.851 9   2604788.469 6
 96 10 24 23 12  6.2400000  0  2G23G27
  36572453.895 9                  28497990.095 6
   3343350.404 9   2605031.166 6
 96 10 24 23 12  6.2600000  0  2G23G27
  36573109.540 9                  28498500.886 6
   3343661.961 9   2605273.757 5
 96 10 24 23 12  6.2800000  0  2G23G27
  36573765.191 9                  28499012.010 6
   3343973.535 9   2605516.575 6
 96 10 24 23 12  6.3000000  0  2G23G27
  36574420.830 9                  28499522.797 6
   3344285.130 9   2605759.733 6
 96 10 24 23 12  6.3200000  0  2G23G27
  36575076.470 9                  28500033.658 6
   3344596.718 9   2606002.106 6
 96 10 24 23 12  6.3400000  0  2G23G27
  36575732.105 9                  28500544.431 6
   3344908.340 9   2606244.951 6
 96 10 24 23 12  6.3600000  0  2G23G27
  36576387.738 9                  28501055.379 6
   3345219.965 9   2606488.068 6
 96 10 24 23 12  6.3800000  0  2G23G27
  36577043.371 9                  28501566.243 7
   3345531.606 9   2606730.631 6
 96 10 24 23 12  6.4000000  0  2G23G27
  36577698.993 9                  28502077.168 6
   3345843.254 9   2606973.382 6
 96 10 24 23 12  6.4200000  0  2G23G27
  36578354.608 9                  28502588.083 6
   3346154.931 9   2607216.347 6
 96 10 24 23 12  6.4400000  0  2G23G27
  36579010.222 9                  28503098.888 6
   3346466.613 9   2607459.369 6
 96 10 24 23 12  6.4600000  0  2G23G27
  36579665.832 9                  28503609.794 6
   3346778.302 9   2607702.206 6
 96 10 24 23 12  6.4800000  0  2G23G27
  36580321.442 9                  28504120.641 6
   3347090.013 9   2607945.062 6
 96 10 24 23 12  6.5000000  0  2G23G27
  36580977.048 9                  28504631.260 7
   3347401.741 9   2608187.899 6
 96 10 24 23 12  6.5200000  0  2G23G27
  36581632.648 9                  28505142.285 7
   3347713.477 9   2608430.724 6
 96 10 24 23 12  6.5400000  0  2G23G27
  36582288.255 9                  28505653.218 6
   3348025.239 9   2608673.862 6
 96 10 24 23 12  6.5600000  0  2G23G27
  36582943.857 9                  28506164.076 6
   3348337.009 9   2608916.686 6
 96 10 24 23 12  6.5800000  0  2G23G27
  36583599.457 9                  28506674.937 6
   3348648.803 9   2609160.001 6
 96 10 24 23 12  6.6000000  0  2G23G27
  36584255.055 9                  28507185.885 5
   3348960.610 9   2609402.794 6
 96 10 24 23 12  6.6200000  0  2G23G27
  36584910.654 9                  28507696.621 6
   3349272.420 9   2609645.528 6
 96 10 24 23 12  6.6400000  0  2G23G27
  36585566.243 9                  28508207.476 6
   3349584.249 9   2609888.560 6
 96 10 24 23 12  6.6600000  0  2G23G27
  36586221.825 9                  28508718.340 7
   3349896.102 9   2610131.346 6
 96 10 24 23 12  6.6800000  0  2G23G27
  36586877.411 9                  28509229.149 6
   3350207.957 9   2610374.471 6
 96 10 24 23 12  6.7000000  0  2G23G27
  36587532.992 9                  28509740.177 6
   3350519.827 9   2610617.754 6
 96 10 24 23 12  6.7200000  0  2G23G27
  36588188.561 9                  28510250.880 6
   3350831.706 9   2610860.563 6
 96 10 24 23 12  6.7400000  0  2G23G27
  36588844.130 9                  28510761.740 6
   3351143.600 9   2611103.756 6
 96 10 24 23 12  6.7600000  0  2G23G27
  36589499.695 9                  28511272.741 6
   3351455.507 9   2611346.736 6
 96 10 24 23 12  6.7800000  0  2G23G27
  36590155.256 9                  28511783.378 6
   3351767.433 9   2611589.940 6
 96 10 24 23 12  6.8000000  0  2G23G27
  36590810.807 9                  28512294.258 6
   3352079.360 9   2611832.681 6
 96 10 24 23 12  6.8200000  0  2G23G27
  36591466.354 9                  28512805.159 6
   3352391.316 9   2612076.068 6
 96 10 24 23 12  6.8400000  0  2G23G27
  36592121.901 9                  28513315.955 6
   3352703.273 9   2612318.875 6
 96 10 24 23 12  6.8600000  0  2G23G27
  36592777.443 9                  28513826.764 6
   3353015.233 9   2612562.358 6
 96 10 24 23 12  6.8800000  0  2G23G27
  36593432.976 9                  28514337.669 6
   3353327.236 9   2612805.151 7
 96 10 24 23 12  6.9000000  0  2G23G27
  36594088.504 9                  28514848.361 6
   3353639.224 9   2613048.621 7
 96 10 24 23 12  6.9200000  0  2G23G27
  36594744.034 9                  28515359.009 7
   3353951.235 9   2613291.571 6
 96 10 24 23 12  6.9400000  0  2G23G27
  36595399.554 9                  28515869.819 6
   3354263.267 9   2613534.548 5
 96 10 24 23 12  6.9600000  0  2G23G27
  36596055.070 9                  28516380.767 6
   3354575.299 9   2613777.855 6
 96 10 24 23 12  6.9800000  0  2G23G27
  36596710.583 9                  28516891.565 5
   3354887.350 9   2614020.834 6
 96 10 24 23 12  7.0000000  0  2G23G27
  36597366.091 9                  28517402.333 6  28556614.002    28556620.760
   3355199.409 9   2614264.165 7  20711815.120                    20711816.763
 96 10 24 23 12  7.0200000  0  2G23G27
  36598021.598 9                  28517913.232 6
   3355511.489 9   2614507.236 5
 96 10 24 23 12  7.0400000  0  2G23G27
  36598677.096 9                  28518423.917 6
   3355823.569 9   2614750.476 5
 96 10 24 23 12  7.0600000  0  2G23G27
  36599332.590 9                  28518934.669 6
   3356135.679 9   2614993.365 5
 96 10 24 23 12  7.0800000  0  2G23G27
  36599988.084 9                  28519445.397 6
   3356447.799 9   2615236.688 6
 96 10 24 23 12  7.1000000  0  2G23G27
  36600643.562 9                  28519956.250 5
   3356759.915 9   2615479.905 6
 96 10 24 23 12  7.1200000  0  2G23G27
  36601299.041 9                  28520467.012 5
   3357072.049 9   2615723.215 5
 96 10 24 23 12  7.1400000  0  2G23G27
  36601954.517 9                  28520977.879 6
   3357384.204 9   2615966.559 6
 96 10 24 23 12  7.1600000  0  2G23G27
  36602609.988 9                  28521488.455 6
   3357696.371 9   2616209.883 6
 96 10 24 23 12  7.1800000  0  2G23G27
  36603265.450 9                  28521999.287 6
   3358008.552 9   2616453.075 6
 96 10 24 23 12  7.2000000  0  2G23G27
  36603920.910 9                  28522510.046 5
   3358320.731 9   2616696.253 6
 96 10 24 23 12  7.2200000  0  2G23G27
  36604576.368 9                  28523020.775 6
   3358632.938 9   2616939.445 6
 96 10 24 23 12  7.2400000  0  2G23G27
  36605231.821 9                  28523531.442 6
   3358945.152 9   2617182.778 5
 96 10 24 23 12  7.2600000  0  2G23G27
  36605887.265 9                  28524042.207 6
   3359257.374 9   2617425.967 6
 96 10 24 23 12  7.2800000  0  2G23G27
  36606542.704 9                  28524552.965 6
   3359569.611 9   2617669.063 6
 96 10 24 23 12  7.3000000  0  2G23G27
  36607198.139 9                  28525063.731 6
   3359881.855 9   2617912.639 6
 96 10 24 23 12  7.3200000  0  2G23G27
  36607853.570 9                  28525574.393 6
   3360194.131 9   2618155.990 6
 96 10 24 23 12  7.3400000  0  2G23G27
  36608509.001 9                  28526085.250 6
   3360506.414 9   2618399.322 6
 96 10 24 23 12  7.3600000  0  2G23G27
  36609164.422 9                  28526595.945 6
   3360818.696 9   2618642.850 6
 96 10 24 23 12  7.3800000  0  2G23G27
  36609819.840 9                  28527106.512 6
   3361130.997 9   2618885.985 6
 96 10 24 23 12  7.4000000  0  2G23G27
  36610475.256 9                  28527617.275 6
   3361443.317 9   2619129.150 6
 96 10 24 23 12  7.4200000  0  2G23G27
  36611130.657 9                  28528128.150 6
   3361755.638 9   2619372.848 6
 96 10 24 23 12  7.4400000  0  2G23G27
  36611786.061 9                  28528638.768 6
   3362067.992 9   2619616.205 6
 96 10 24 23 12  7.4600000  0  2G23G27
  36612441.470 9                  28529149.529 6
   3362380.341 9   2619859.482 6
 96 10 24 23 12  7.4800000  0  2G23G27
  36613096.868 9                  28529660.284 6
   3362692.707 9   2620102.646 6
 96 10 24 23 12  7.5000000  0  2G23G27
  36613752.258 9                  28530170.997 6
   3363005.092 9   2620346.545 5
 96 10 24 23 12  7.5200000  0  2G23G27
  36614407.646 9                  28530681.620 5
   3363317.493 9   2620589.757 5
 96 10 24 23 12  7.5400000  0  2G23G27
  36615063.036 9                  28531192.318 6
   3363629.904 9   2620833.194 6
 96 10 24 23 12  7.5600000  0  2G23G27
  36615718.422 9                  28531702.960 6
   3363942.335 9   2621076.690 6
 96 10 24 23 12  7.5800000  0  2G23G27
  36616373.811 9                  28532213.804 6
   3364254.774 9   2621320.101 6
 96 10 24 23 12  7.6000000  0  2G23G27
  36617029.200 9                  28532724.322 6
   3364567.235 9   2621563.802 5
 96 10 24 23 12  7.6200000  0  2G23G27
  36617684.586 9                  28533234.994 6
   3364879.717 9   2621807.224 6
 96 10 24 23 12  7.6400000  0  2G23G27
  36618339.970 9                  28533745.776 6
   3365192.213 9   2622050.836 6
 96 10 24 23 12  7.6600000  0  2G23G27
  36618995.355 9                  28534256.645 7
   3365504.734 9   2622294.439 6
 96 10 24 23 12  7.6800000  0  2G23G27
  36619650.735 9                  28534767.257 6
   3365817.258 9   2622537.606 6
 96 10 24 23 12  7.7000000  0  2G23G27
  36620306.121 9                  28535277.710 6
   3366129.804 9   2622781.272 6
 96 10 24 23 12  7.7200000  0  2G23G27
  36620961.499 9                  28535788.561 6
   3366442.366 9   2623024.696 6
 96 10 24 23 12  7.7400000  0  2G23G27
  36621616.880 9                  28536299.189 6
   3366754.947 9   2623268.301 5
 96 10 24 23 12  7.7600000  0  2G23G27
  36622272.258 9                  28536809.834 6
   3367067.535 9   2623512.083 6
 96 10 24 23 12  7.7800000  0  2G23G27
  36622927.631 9                  28537320.678 6
   3367380.144 9   2623755.363 6
 96 10 24 23 12  7.8000000  0  2G23G27
  36623582.996 9                  28537831.272 6
   3367692.769 9   2623998.953 6
 96 10 24 23 12  7.8200000  0  2G23G27
  36624238.362 9                  28538341.996 6
   3368005.391 9   2624242.516 6
 96 10 24 23 12  7.8400000  0  2G23G27
  36624893.705 9                  28538852.539 6
   3368318.031 9   2624486.144 6
 96 10 24 23 12  7.8600000  0  2G23G27
  36625549.054 9                  28539363.144 6
   3368630.682 9   2624729.917 6
 96 10 24 23 12  7.8800000  0  2G23G27
  36626204.399 9                  28539874.048 6
   3368943.343 9   2624973.708 6
 96 10 24 23 12  7.9000000  0  2G23G27
  36626859.743 9                  28540384.629 6
   3369256.021 9   2625217.306 6
 96 10 24 23 12  7.9200000  0  2G23G27
  36627515.076 9                  28540895.319 6
   3369568.712 9   2625460.865 6
 96 10 24 23 12  7.9400000  0  2G23G27
  36628170.397 9                  28541405.853 6
   3369881.410 9   2625704.702 6
 96 10 24 23 12  7.9600000  0  2G23G27
  36628825.726 9                  28541916.586 6
   3370194.116 9   2625948.195 6
 96 10 24 23 12  7.9800000  0  2G23G27
  36629481.044 9                  28542427.127 6
   3370506.845 9   2626192.011 6
 96 10 24 23 12  8.0000000  0  2G23G27
  36630136.356 9                  28542937.887 6  28562850.186    28562856.912
   3370819.576 9   2626435.754 5  20714787.764                    20714792.302
 96 10 24 23 12  8.0200000  0  2G23G27
  36630791.662 9                  28543448.493 6
   3371132.333 9   2626679.242 6
 96 10 24 23 12  8.0400000  0  2G23G27
  36631446.964 9                  28543959.080 6
   3371445.095 9   2626923.197 6
 96 10 24 23 12  8.0600000  0  2G23G27
  36632102.261 9                  28544469.816 6
   3371757.870 9   2627166.693 5
 96 10 24 23 12  8.0800000  0  2G23G27
  36632757.553 9                  28544980.355 6
   3372070.660 9   2627410.181 6
 96 10 24 23 12  8.1000000  0  2G23G27
  36633412.843 9                  28545490.989 6
   3372383.460 9   2627654.181 5
 96 10 24 23 12  8.1200000  0  2G23G27
  36634068.131 9                  28546001.689 6
   3372696.276 9   2627898.152 7
 96 10 24 23 12  8.1400000  0  2G23G27
  36634723.405 9                  28546512.317 6
   3373009.104 9   2628141.686 6
 96 10 24 23 12  8.1600000  0  2G23G27
  36635378.678 9                  28547022.850 6
   3373321.938 9   2628385.462 7
 96 10 24 23 12  8.1800000  0  2G23G27
  36636033.950 9                  28547533.574 6
   3373634.785 9   2628629.374 6
 96 10 24 23 12  8.2000000  0  2G23G27
  36636689.221 9                  28548044.021 6
   3373947.644 9   2628873.242 6
 96 10 24 23 12  8.2200000  0  2G23G27
  36637344.480 9                  28548554.554 6
   3374260.532 9   2629116.917 6
 96 10 24 23 12  8.2400000  0  2G23G27
  36637999.732 9                  28549065.216 6
   3374573.421 9   2629360.807 5
 96 10 24 23 12  8.2600000  0  2G23G27
  36638654.982 9                  28549575.748 6
   3374886.317 9   2629604.448 7
 96 10 24 23 12  8.2800000  0  2G23G27
  36639310.223 9                  28550086.419 6
   3375199.234 9   2629848.238 6
 96 10 24 23 12  8.3000000  0  2G23G27
  36639965.463 9                  28550596.993 5
   3375512.164 9   2630091.902 6
 96 10 24 23 12  8.3200000  0  2G23G27
  36640620.701 9                  28551107.498 5
   3375825.104 9   2630336.036 6
 96 10 24 23 12  8.3400000  0  2G23G27
  36641275.936 9                  28551618.138 6
   3376138.050 9   2630579.697 7
 96 10 24 23 12  8.3600000  0  2G23G27
  36641931.167 9                  28552128.690 6
   3376451.024 9   2630823.926 6
 96 10 24 23 12  8.3800000  0  2G23G27
  36642586.383 9                  28552639.256 6
   3376763.989 9   2631067.429 6
 96 10 24 23 12  8.4000000  0  2G23G27
  36643241.603 9                  28553149.902 7
   3377076.985 9   2631311.360 6
 96 10 24 23 12  8.4200000  0  2G23G27
  36643896.813 9                  28553660.368 6
   3377389.992 9   2631555.675 6
 96 10 24 23 12  8.4400000  0  2G23G27
  36644552.024 9                  28554171.068 6
   3377703.010 9   2631799.178 6
 96 10 24 23 12  8.4600000  0  2G23G27
  36645207.234 9                  28554681.655 6
   3378016.036 9   2632043.291 6
 96 10 24 23 12  8.4800000  0  2G23G27
  36645862.438 9                  28555192.117 6
   3378329.090 9   2632287.265 6
 96 10 24 23 12  8.5000000  0  2G23G27
  36646517.631 9                  28555702.715 6
   3378642.144 9   2632531.119 6
 96 10 24 23 12  8.5200000  0  2G23G27
  36647172.823 9                  28556213.067 7
   3378955.216 9   2632774.863 6
 96 10 24 23 12  8.5400000  0  2G23G27
  36647828.019 9                  28556723.700 6
   3379268.299 9   2633019.113 6
 96 10 24 23 12  8.5600000  0  2G23G27
  36648483.209 9                  28557234.286 6
   3379581.406 9   2633262.984 5
 96 10 24 23 12  8.5800000  0  2G23G27
  36649138.402 9                  28557744.727 6
   3379894.532 9   2633507.011 5
 96 10 24 23 12  8.6000000  0  2G23G27
  36649793.599 9                  28558255.262 6
   3380207.666 9   2633751.196 5
 96 10 24 23 12  8.6200000  0  2G23G27
  36650448.781 9                  28558765.838 6
   3380520.819 9   2633994.846 7
 96 10 24 23 12  8.6400000  0  2G23G27
  36651103.960 9                  28559276.370 6
   3380833.974 9   2634239.166 7
 96 10 24 23 12  8.6600000  0  2G23G27
  36651759.135 9                  28559786.996 6
   3381147.147 9   2634483.269 6
 96 10 24 23 12  8.6800000  0  2G23G27
  36652414.307 9                  28560297.516 6
   3381460.340 9   2634727.204 5
 96 10 24 23 12  8.7000000  0  2G23G27
  36653069.471 9                  28560807.940 6
   3381773.539 9   2634971.241 4
 96 10 24 23 12  8.7200000  0  2G23G27
  36653724.631 9                  28561318.612 6
   3382086.750 9   2635215.059 4
 96 10 24 23 12  8.7400000  0  2G23G27
  36654379.788 9                  28561829.016 7
   3382399.972 9   2635459.371 5
 96 10 24 23 12  8.7600000  0  2G23G27
  36655034.941 9                  28562339.498 6
   3382713.216 9   2635703.400 5
 96 10 24 23 12  8.7800000  0  2G23G27
  36655690.090 9                  28562850.030 6
   3383026.462 9   2635947.557 6
 96 10 24 23 12  8.8000000  0  2G23G27
  36656345.234 9                  28563360.465 6
   3383339.720 9   2636191.612 6
 96 10 24 23 12  8.8200000  0  2G23G27
  36657000.367 9                  28563871.007 7
   3383652.996 9   2636435.678 6
 96 10 24 23 12  8.8400000  0  2G23G27
  36657655.509 9                  28564381.529 6
   3383966.290 9   2636679.750 6
 96 10 24 23 12  8.8600000  0  2G23G27
  36658310.634 9                  28564891.980 6
   3384279.593 9   2636923.881 4
 96 10 24 23 12  8.8800000  0  2G23G27
  36658965.755 9                  28565402.626 6
   3384592.907 9   2637167.911 6
 96 10 24 23 12  8.9000000  0  2G23G27
  36659620.869 9                  28565912.968 7
   3384906.238 9   2637412.305 6
 96 10 24 23 12  8.9200000  0  2G23G27
  36660275.986 9                  28566423.515 6
   3385219.573 9   2637656.369 6
 96 10 24 23 12  8.9400000  0  2G23G27
  36660931.094 9                  28566934.040 6
   3385532.930 9   2637900.647 6
 96 10 24 23 12  8.9600000  0  2G23G27
  36661586.193 9                  28567444.585 6
   3385846.286 9   2638144.998 6
 96 10 24 23 12  8.9800000  0  2G23G27
  36662241.288 9                  28567955.124 7
   3386159.662 9   2638388.911 6
 96 10 24 23 12  9.0000000  0  2G23G27
  36662896.385 9  28568465.424 6  28569083.868                    28569092.173
   3386473.052 9   2638632.961 6  20717766.396                    20717764.906
 96 10 24 23 12  9.0200000  0  2G23G27
  36663551.482 9                  28568975.891 6
   3386786.461 9   2638877.135 6
 96 10 24 23 12  9.0400000  0  2G23G27
  36664206.561 9                  28569486.258 6
   3387099.871 9   2639121.477 6
 96 10 24 23 12  9.0600000  0  2G23G27
  36664861.646 9                  28569996.749 5
   3387413.300 9   2639365.746 5
 96 10 24 23 12  9.0800000  0  2G23G27
  36665516.722 9                  28570507.389 6
   3387726.746 9   2639610.031 6
 96 10 24 23 12  9.1000000  0  2G23G27
  36666171.788 9                  28571017.746 6
   3388040.200 9   2639854.468 6
 96 10 24 23 12  9.1200000  0  2G23G27
  36666826.858 9                  28571528.094 6
   3388353.665 9   2640098.782 6
 96 10 24 23 12  9.1400000  0  2G23G27
  36667481.926 9                  28572038.625 6
   3388667.153 9   2640342.897 5
 96 10 24 23 12  9.1600000  0  2G23G27
  36668136.986 9                  28572549.071 6
   3388980.651 9   2640586.816 6
 96 10 24 23 12  9.1800000  0  2G23G27
  36668792.038 9                  28573059.285 6
   3389294.151 9   2640831.245 6
 96 10 24 23 12  9.2000000  0  2G23G27
  36669447.087 9                  28573569.693 6
   3389607.686 9   2641075.606 5
 96 10 24 23 12  9.2200000  0  2G23G27
  36670102.134 9                  28574080.331 6
   3389921.206 9   2641319.950 5
 96 10 24 23 12  9.2400000  0  2G23G27
  36670757.173 9                  28574590.876 6
   3390234.764 9   2641564.418 6
 96 10 24 23 12  9.2600000  0  2G23G27
  36671412.217 9                  28575101.223 6
   3390548.325 9   2641808.669 6
 96 10 24 23 12  9.2800000  0  2G23G27
  36672067.255 9                  28575611.675 7
   3390861.903 9   2642052.865 6
 96 10 24 23 12  9.3000000  0  2G23G27
  36672722.281 9                  28576122.058 6
   3391175.489 9   2642297.310 5
 96 10 24 23 12  9.3200000  0  2G23G27
  36673377.308 9                  28576632.394 6
   3391489.097 9   2642541.521 6
 96 10 24 23 12  9.3400000  0  2G23G27
  36674032.336 9                  28577142.783 6
   3391802.712 9   2642786.145 6
 96 10 24 23 12  9.3600000  0  2G23G27
  36674687.358 9                  28577653.236 6
   3392116.338 9   2643030.306 6
 96 10 24 23 12  9.3800000  0  2G23G27
  36675342.374 9                  28578163.751 6
   3392429.984 9   2643274.906 6
 96 10 24 23 12  9.4000000  0  2G23G27
  36675997.379 9                  28578674.040 6
   3392743.652 9   2643518.931 6
 96 10 24 23 12  9.4200000  0  2G23G27
  36676652.393 9                  28579184.445 6
   3393057.309 9   2643763.963 6
 96 10 24 23 12  9.4400000  0  2G23G27
  36677307.400 9                  28579694.793 6
   3393370.993 9   2644007.987 6
 96 10 24 23 12  9.4600000  0  2G23G27
  36677962.401 9                  28580205.176 5
   3393684.702 9   2644252.508 6
 96 10 24 23 12  9.4800000  0  2G23G27
  36678617.392 9                  28580715.591 5
   3393998.414 9   2644497.413 6
 96 10 24 23 12  9.5000000  0  2G23G27
  36679272.384 9                  28581226.030 6
   3394312.129 9   2644741.644 6
 96 10 24 23 12  9.5200000  0  2G23G27
  36679927.379 9                  28581736.666 6
   3394625.872 9   2644986.118 6
 96 10 24 23 12  9.5400000  0  2G23G27
  36680582.366 9                  28582247.050 6
   3394939.630 9   2645230.285 6
 96 10 24 23 12  9.5600000  0  2G23G27
  36681237.359 9                  28582757.258 6
   3395253.408 9   2645474.718 6
 96 10 24 23 12  9.5800000  0  2G23G27
  36681892.350 9                  28583267.630 6
   3395567.188 9   2645719.515 6
 96 10 24 23 12  9.6000000  0  2G23G27
  36682547.333 9                  28583777.817 6
   3395881.000 9   2645963.995 6
 96 10 24 23 12  9.6200000  0  2G23G27
  36683202.316 9                  28584288.164 7
   3396194.824 9   2646208.495 6
 96 10 24 23 12  9.6400000  0  2G23G27
  36683857.287 9                  28584798.650 6
   3396508.648 9   2646453.053 6
 96 10 24 23 12  9.6600000  0  2G23G27
  36684512.261 9                  28585309.228 7
   3396822.486 9   2646697.430 6
 96 10 24 23 12  9.6800000  0  2G23G27
  36685167.233 9                  28585819.565 7
   3397136.349 9   2646942.225 6
 96 10 24 23 12  9.7000000  0  2G23G27
  36685822.199 9                  28586329.895 6
   3397450.221 9   2647186.721 6
 96 10 24 23 12  9.7200000  0  2G23G27
  36686477.159 9                  28586840.233 6
   3397764.102 9   2647431.162 6
 96 10 24 23 12  9.7400000  0  2G23G27
  36687132.113 9                  28587350.661 6
   3398077.997 9   2647675.920 6
 96 10 24 23 12  9.7600000  0  2G23G27
  36687787.055 9                  28587860.766 6
   3398391.907 9   2647920.400 6
 96 10 24 23 12  9.7800000  0  2G23G27
  36688442.005 9                  28588371.189 6
   3398705.824 9   2648165.064 5
 96 10 24 23 12  9.8000000  0  2G23G27
  36689096.941 9                  28588881.632 6
   3399019.762 9   2648409.885 6
 96 10 24 23 12  9.8200000  0  2G23G27
  36689751.876 9                  28589391.944 6
   3399333.716 9   2648654.470 6
 96 10 24 23 12  9.8400000  0  2G23G27
  36690406.807 9                  28589902.192 6
   3399647.666 9   2648899.129 5
 96 10 24 23 12  9.8600000  0  2G23G27
  36691061.728 9                  28590412.644 5
   3399961.643 9   2649143.818 6
 96 10 24 23 12  9.8800000  0  2G23G27
  36691716.657 9                  28590923.146 6
   3400275.630 9   2649388.414 6
 96 10 24 23 12  9.9000000  0  2G23G27
  36692371.576 9                  28591433.313 6
   3400589.630 9   2649633.050 6
 96 10 24 23 12  9.9200000  0  2G23G27
  36693026.490 9                  28591943.535 6
   3400903.642 9   2649877.650 6
 96 10 24 23 12  9.9400000  0  2G23G27
  36693681.400 9                  28592453.869 7
   3401217.669 9   2650122.565 6
 96 10 24 23 12  9.9600000  0  2G23G27
  36694336.304 9                  28592964.270 6
   3401531.702 9   2650366.850 6
 96 10 24 23 12  9.9800000  0  2G23G27
  36694991.200 9                  28593474.584 6
   3401845.767 9   2650611.688 6
 96 10 24 23 12 10.0000000  0  2G23G27
  36695646.094 9                  28593984.850 6  28575315.835    28575326.779
   3402159.825 9   2650856.516 5  20720751.464                    20720747.947
 96 10 24 23 12 10.0200000  0  2G23G27
  36696300.991 9                  28594495.200 5
   3402473.894 9   2651101.242 7
 96 10 24 23 12 10.0400000  0  2G23G27
  36696955.880 9                  28595005.413 6
   3402787.986 9   2651346.302 6
 96 10 24 23 12 10.0600000  0  2G23G27
  36697610.763 9                  28595515.881 5
   3403102.092 9   2651590.856 7
 96 10 24 23 12 10.0800000  0  2G23G27
  36698265.634 9                  28596026.232 5
   3403416.203 9   2651835.687 6
 96 10 24 23 12 10.1000000  0  2G23G27
  36698920.504 9                  28596536.412 6
   3403730.335 9   2652080.371 5
 96 10 24 23 12 10.1200000  0  2G23G27
  36699575.371 9                  28597046.700 6
   3404044.473 9   2652324.922 6
 96 10 24 23 12 10.1400000  0  2G23G27
  36700230.231 9                  28597557.097 6
   3404358.622 9   2652569.933 6
 96 10 24 23 12 10.1600000  0  2G23G27
  36700885.085 9                  28598067.346 6
   3404672.792 9   2652814.611 6
 96 10 24 23 12 10.1800000  0  2G23G27
  36701539.937 9                  28598577.604 6
   3404986.963 9   2653059.385 6
 96 10 24 23 12 10.2000000  0  2G23G27
  36702194.783 9                  28599087.824 6
   3405301.144 9   2653304.226 6
 96 10 24 23 12 10.2200000  0  2G23G27
  36702849.626 9                  28599598.018 5
   3405615.345 9   2653548.999 6
 96 10 24 23 12 10.2400000  0  2G23G27
  36703504.466 9                  28600108.178 6
   3405929.561 9   2653793.871 6
 96 10 24 23 12 10.2600000  0  2G23G27
  36704159.304 9                  28600618.446 7
   3406243.794 9   2654038.891 6
 96 10 24 23 12 10.2800000  0  2G23G27
  36704814.124 9                  28601128.767 6
   3406558.027 9   2654283.765 5
 96 10 24 23 12 10.3000000  0  2G23G27
  36705468.942 9                  28601639.016 6
   3406872.280 9   2654528.408 6
 96 10 24 23 12 10.3200000  0  2G23G27
  36706123.762 9                  28602149.247 6
   3407186.539 9   2654773.219 6
 96 10 24 23 12 10.3400000  0  2G23G27
  36706778.576 9                  28602659.686 7
   3407500.823 9   2655018.395 6
 96 10 24 23 12 10.3600000  0  2G23G27
  36707433.387 9                  28603170.022 6
   3407815.116 9   2655263.297 6
 96 10 24 23 12 10.3800000  0  2G23G27
  36708088.192 9                  28603680.105 6
   3408129.424 9   2655508.209 6
 96 10 24 23 12 10.4000000  0  2G23G27
  36708742.994 9                  28604190.288 6
   3408443.746 9   2655753.259 6
 96 10 24 23 12 10.4200000  0  2G23G27
  36709397.791 9                  28604700.593 6
   3408758.069 9   2655998.166 6
 96 10 24 23 12 10.4400000  0  2G23G27
  36710052.580 9                  28605210.795 6
   3409072.408 9   2656242.952 5
 96 10 24 23 12 10.4600000  0  2G23G27
  36710707.368 9                  28605721.082 6
   3409386.767 9   2656488.190 6
 96 10 24 23 12 10.4800000  0  2G23G27
  36711362.150 9                  28606231.173 6
   3409701.132 9   2656732.992 6
 96 10 24 23 12 10.5000000  0  2G23G27
  36712016.928 9                  28606741.314 6
   3410015.517 9   2656977.731 6
 96 10 24 23 12 10.5200000  0  2G23G27
  36712671.701 9                  28607251.526 6
   3410329.909 9   2657223.177 6
 96 10 24 23 12 10.5400000  0  2G23G27
  36713326.475 9                  28607761.806 6
   3410644.325 9   2657467.905 6
 96 10 24 23 12 10.5600000  0  2G23G27
  36713981.245 9                  28608272.088 6
   3410958.752 9   2657712.918 5
 96 10 24 23 12 10.5800000  0  2G23G27
  36714636.021 9                  28608782.450 6
   3411273.205 9   2657957.935 6
 96 10 24 23 12 10.6000000  0  2G23G27
  36715290.791 9                  28609292.671 6
   3411587.662 9   2658203.150 6
 96 10 24 23 12 10.6200000  0  2G23G27
  36715945.552 9                  28609802.669 6
   3411902.137 9   2658447.709 6
 96 10 24 23 12 10.6400000  0  2G23G27
  36716600.313 9                  28610312.886 6
   3412216.623 9   2658692.949 7
 96 10 24 23 12 10.6600000  0  2G23G27
  36717255.064 9                  28610823.167 6
   3412531.116 9   2658938.007 7
 96 10 24 23 12 10.6800000  0  2G23G27
  36717909.819 9                  28611333.375 6
   3412845.631 9   2659183.079 6
 96 10 24 23 12 10.7000000  0  2G23G27
  36718564.561 9                  28611843.616 6
   3413160.147 9   2659428.430 6
 96 10 24 23 12 10.7200000  0  2G23G27
  36719219.291 9                  28612353.691 6
   3413474.681 9   2659673.344 6
 96 10 24 23 12 10.7400000  0  2G23G27
  36719874.026 9                  28612863.863 6
   3413789.233 9   2659918.190 6
 96 10 24 23 12 10.7600000  0  2G23G27
  36720528.761 9                  28613374.160 6
   3414103.785 9   2660163.591 5
 96 10 24 23 12 10.7800000  0  2G23G27
  36721183.495 9                  28613884.281 7
   3414418.372 9   2660408.720 6
 96 10 24 23 12 10.8000000  0  2G23G27
  36721838.228 9                  28614394.460 6
   3414732.971 9   2660653.637 7
 96 10 24 23 12 10.8200000  0  2G23G27
  36722492.960 9                  28614904.606 6
   3415047.589 9   2660899.057 6
 96 10 24 23 12 10.8400000  0  2G23G27
  36723147.686 9                  28615414.815 6
   3415362.207 9   2661144.065 6
 96 10 24 23 12 10.8600000  0  2G23G27
  36723802.408 9                  28615924.774 6
   3415676.864 9   2661389.355 5
 96 10 24 23 12 10.8800000  0  2G23G27
  36724457.127 9                  28616435.028 6
   3415991.523 9   2661634.585 5
 96 10 24 23 12 10.9000000  0  2G23G27
  36725111.848 9                  28616945.369 6
   3416306.193 9   2661879.708 6
 96 10 24 23 12 10.9200000  0  2G23G27
  36725766.564 9                  28617455.489 6
   3416620.885 9   2662124.709 6
 96 10 24 23 12 10.9400000  0  2G23G27
  36726421.271 9                  28617965.724 6
   3416935.573 9   2662369.932 6
 96 10 24 23 12 10.9600000  0  2G23G27
  36727075.973 9                  28618475.793 6
   3417250.282 9   2662615.209 6
 96 10 24 23 12 10.9800000  0  2G23G27
  36727730.671 9                  28618985.901 6
   3417565.004 9   2662860.615 6
 96 10 24 23 12 11.0000000  0  2G23G27
  36728385.362 9                  28619496.115 6  28581545.431    28581552.935
   3417879.723 9   2663105.785 6  20723743.299    20723742.832
 96 10 24 23 12 11.0200000  0  2G23G27
  36729040.051 9                  28620006.265 7
   3418194.478 9   2663351.192 6
 96 10 24 23 12 11.0400000  0  2G23G27
  36729694.734 9                  28620516.316 6
   3418509.222 9   2663596.370 5
 96 10 24 23 12 11.0600000  0  2G23G27
  36730349.417 9                  28621026.573 6
   3418823.997 9   2663841.576 6
 96 10 24 23 12 11.0800000  0  2G23G27
  36731004.087 9                  28621536.678 6
   3419138.789 9   2664086.977 6
 96 10 24 23 12 11.1000000  0  2G23G27
  36731658.756 9                  28622046.813 6
   3419453.587 9   2664332.233 6
 96 10 24 23 12 11.1200000  0  2G23G27
  36732313.423 9                  28622556.910 6
   3419768.386 9   2664577.487 5
 96 10 24 23 12 11.1400000  0  2G23G27
  36732968.083 9                  28623067.231 6
   3420083.204 9   2664822.735 4
 96 10 24 23 12 11.1600000  0  2G23G27
  36733622.736 9                  28623577.252 6
   3420398.037 9   2665068.244 6
 96 10 24 23 12 11.1800000  0  2G23G27
  36734277.390 9                  28624087.384 6
   3420712.887 9   2665313.666 4
 96 10 24 23 12 11.2000000  0  2G23G27
  36734932.033 9                  28624597.491 6
   3421027.751 9   2665558.858 6
 96 10 24 23 12 11.2200000  0  2G23G27
  36735586.683 9                  28625107.658 6
   3421342.614 9   2665804.199 6
 96 10 24 23 12 11.2400000  0  2G23G27
  36736241.320 9                  28625617.715 6
   3421657.514 9   2666049.894 6
 96 10 24 23 12 11.2600000  0  2G23G27
  36736895.955 9                  28626127.911 6
   3421972.403 9   2666294.927 6
 96 10 24 23 12 11.2800000  0  2G23G27
  36737550.590 9                  28626637.944 6
   3422287.322 9   2666540.222 6
 96 10 24 23 12 11.3000000  0  2G23G27
  36738205.214 9                  28627148.038 6
   3422602.246 9   2666785.542 6
 96 10 24 23 12 11.3200000  0  2G23G27
  36738859.827 9                  28627658.019 6
   3422917.188 9   2667031.229 6
 96 10 24 23 12 11.3400000  0  2G23G27
  36739514.442 9                  28628168.183 6
   3423232.139 9   2667276.371 5
 96 10 24 23 12 11.3600000  0  2G23G27
  36740169.057 9                  28628678.305 6
   3423547.105 9   2667522.023 6
 96 10 24 23 12 11.3800000  0  2G23G27
  36740823.662 9                  28629188.311 6
   3423862.081 9   2667767.530 5
 96 10 24 23 12 11.4000000  0  2G23G27
  36741478.269 9                  28629698.533 6
   3424177.076 9   2668013.004 6
 96 10 24 23 12 11.4200000  0  2G23G27
  36742132.867 9                  28630208.485 6
   3424492.083 9   2668258.428 6
 96 10 24 23 12 11.4400000  0  2G23G27
  36742787.462 9                  28630718.630 6
   3424807.099 9   2668503.735 6
 96 10 24 23 12 11.4600000  0  2G23G27
  36743442.054 9                  28631228.727 6
   3425122.123 9   2668749.252 5
 96 10 24 23 12 11.4800000  0  2G23G27
  36744096.640 9                  28631738.843 6
   3425437.168 9   2668994.715 6
 96 10 24 23 12 11.5000000  0  2G23G27
  36744751.219 9                  28632248.901 6
   3425752.231 9   2669240.407 5
 96 10 24 23 12 11.5200000  0  2G23G27
  36745405.797 9                  28632758.895 6
   3426067.291 9   2669485.879 6
 96 10 24 23 12 11.5400000  0  2G23G27
  36746060.375 9                  28633268.909 6
   3426382.380 9   2669731.267 5
 96 10 24 23 12 11.5600000  0  2G23G27
  36746714.956 9                  28633779.097 6
   3426697.492 9   2669976.891 6
 96 10 24 23 12 11.5800000  0  2G23G27
  36747369.536 9                  28634289.047 6
   3427012.616 9   2670222.279 6
 96 10 24 23 12 11.6000000  0  2G23G27
  36748024.111 9                  28634799.148 6
   3427327.745 9   2670468.064 6
 96 10 24 23 12 11.6200000  0  2G23G27
  36748678.672 9                  28635309.089 6
   3427642.903 9   2670713.603 6
 96 10 24 23 12 11.6400000  0  2G23G27
  36749333.244 9                  28635819.192 5
   3427958.065 9   2670959.282 5
 96 10 24 23 12 11.6600000  0  2G23G27
  36749987.805 9                  28636329.223 5
   3428273.234 9   2671204.531 6
 96 10 24 23 12 11.6800000  0  2G23G27
  36750642.361 9                  28636839.281 6
   3428588.421 9   2671450.169 6
 96 10 24 23 12 11.7000000  0  2G23G27
  36751296.910 9                  28637349.449 5
   3428903.620 9   2671695.866 6
 96 10 24 23 12 11.7200000  0  2G23G27
  36751951.461 9                  28637859.527 6
   3429218.834 9   2671941.434 6
 96 10 24 23 12 11.7400000  0  2G23G27
  36752605.998 9                  28638369.469 6
   3429534.055 9   2672187.008 4
 96 10 24 23 12 11.7600000  0  2G23G27
  36753260.537 9                  28638879.441 6
   3429849.299 9   2672432.971 6
 96 10 24 23 12 11.7800000  0  2G23G27
  36753915.065 9                  28639389.463 6
   3430164.546 9   2672678.372 6
 96 10 24 23 12 11.8000000  0  2G23G27
  36754569.597 9                  28639899.559 6
   3430479.815 9   2672924.125 6
 96 10 24 23 12 11.8200000  0  2G23G27
  36755224.115 9                  28640409.639 6
   3430795.087 9   2673169.607 5
 96 10 24 23 12 11.8400000  0  2G23G27
  36755878.629 9                  28640919.604 6
   3431110.380 9   2673415.481 5
 96 10 24 23 12 11.8600000  0  2G23G27
  36756533.149 9                  28641429.683 6
   3431425.673 9   2673661.206 6
 96 10 24 23 12 11.8800000  0  2G23G27
  36757187.651 9                  28641939.759 6
   3431740.987 9   2673906.733 6
 96 10 24 23 12 11.9000000  0  2G23G27
  36757842.156 9                  28642449.552 6
   3432056.315 9   2674152.673 6
 96 10 24 23 12 11.9200000  0  2G23G27
  36758496.651 9                  28642959.558 6
   3432371.650 9   2674398.394 6
 96 10 24 23 12 11.9400000  0  2G23G27
  36759151.151 9                  28643469.517 6
   3432687.008 9   2674644.086 6
 96 10 24 23 12 11.9600000  0  2G23G27
  36759805.635 9                  28643979.707 6
   3433002.365 9   2674889.740 6
 96 10 24 23 12 11.9800000  0  2G23G27
  36760460.124 9                  28644489.644 6
   3433317.751 9   2675135.458 6
 96 10 24 23 12 12.0000000  0  2G23G27
  36761114.608 9                  28644999.642 6  28587773.625    28587782.598
   3433633.143 9   2675381.164 6  20726740.749    20726741.557
 96 10 24 23 12 12.0200000  0  2G23G27
  36761769.086 9                  28645509.465 6
   3433948.547 9   2675627.137 7
 96 10 24 23 12 12.0400000  0  2G23G27
  36762423.556 9                  28646019.532 6
   3434263.966 9   2675872.672 6
 96 10 24 23 12 12.0600000  0  2G23G27
  36763078.030 9                  28646529.519 6
   3434579.395 9   2676118.567 6
 96 10 24 23 12 12.0800000  0  2G23G27
  36763732.495 9                  28647039.322 6
   3434894.834 9   2676364.413 5
 96 10 24 23 12 12.1000000  0  2G23G27
  36764386.953 9                  28647549.486 7
   3435210.296 9   2676610.147 6
 96 10 24 23 12 12.1200000  0  2G23G27
  36765041.406 9                  28648059.540 6
   3435525.762 9   2676855.822 6
 96 10 24 23 12 12.1400000  0  2G23G27
  36765695.852 9                  28648569.547 5
   3435841.247 9   2677102.034 5
 96 10 24 23 12 12.1600000  0  2G23G27
  36766350.302 9                  28649079.514 6
   3436156.736 9   2677347.667 6
 96 10 24 23 12 12.1800000  0  2G23G27
  36767004.741 9                  28649589.386 6
   3436472.246 9   2677593.472 6
 96 10 24 23 12 12.2000000  0  2G23G27
  36767659.178 9                  28650099.268 6
   3436787.769 9   2677839.381 5
 96 10 24 23 12 12.2200000  0  2G23G27
  36768313.617 9                  28650609.162 6
   3437103.301 9   2678085.086 6
 96 10 24 23 12 12.2400000  0  2G23G27
  36768968.039 9                  28651119.190 6
   3437418.849 9   2678331.300 6
 96 10 24 23 12 12.2600000  0  2G23G27
  36769622.459 9                  28651629.000 7
   3437734.414 9   2678577.054 6
 96 10 24 23 12 12.2800000  0  2G23G27
  36770276.883 9                  28652139.151 6
   3438049.989 9   2678822.880 5
 96 10 24 23 12 12.3000000  0  2G23G27
  36770931.303 9                  28652648.977 6
   3438365.581 9   2679068.776 5
 96 10 24 23 12 12.3200000  0  2G23G27
  36771585.711 9                  28653158.977 5
   3438681.178 9   2679314.643 6
 96 10 24 23 12 12.3400000  0  2G23G27
  36772240.122 9                  28653668.766 6
   3438996.790 9   2679560.684 6
 96 10 24 23 12 12.3600000  0  2G23G27
  36772894.528 9                  28654178.879 6
   3439312.420 9   2679806.582 6
 96 10 24 23 12 12.3800000  0  2G23G27
  36773548.932 9                  28654688.919 6
   3439628.068 9   2680052.395 6
 96 10 24 23 12 12.4000000  0  2G23G27
  36774203.329 9                  28655198.827 6
   3439943.722 9   2680298.535 5
 96 10 24 23 12 12.4200000  0  2G23G27
  36774857.717 9                  28655708.494 6
   3440259.396 9   2680544.368 6
 96 10 24 23 12 12.4400000  0  2G23G27
  36775512.111 9                  28656218.393 6
   3440575.068 9   2680790.445 6
 96 10 24 23 12 12.4600000  0  2G23G27
  36776166.495 9                  28656728.397 6
   3440890.762 9   2681036.434 6
 96 10 24 23 12 12.4800000  0  2G23G27
  36776820.873 9                  28657238.366 6
   3441206.477 9   2681282.574 6
 96 10 24 23 12 12.5000000  0  2G23G27
  36777475.249 9                  28657748.221 6
   3441522.201 9   2681528.548 6
 96 10 24 23 12 12.5200000  0  2G23G27
  36778129.624 9                  28658258.134 6
   3441837.931 9   2681774.577 6
 96 10 24 23 12 12.5400000  0  2G23G27
  36778783.994 9                  28658768.070 6
   3442153.691 9   2682020.604 6
 96 10 24 23 12 12.5600000  0  2G23G27
  36779438.368 9                  28659277.978 6
   3442469.454 9   2682266.772 6
 96 10 24 23 12 12.5800000  0  2G23G27
  36780092.741 9                  28659788.015 7
   3442785.244 9   2682512.442 6
 96 10 24 23 12 12.6000000  0  2G23G27
  36780747.109 9                  28660297.898 6
   3443101.046 9   2682758.718 5
 96 10 24 23 12 12.6200000  0  2G23G27
  36781401.482 9                  28660807.799 6
   3443416.875 9   2683004.850 6
 96 10 24 23 12 12.6400000  0  2G23G27
  36782055.846 9                  28661317.680 6
   3443732.696 9   2683251.083 7
 96 10 24 23 12 12.6600000  0  2G23G27
  36782710.199 9                  28661827.623 6
   3444048.545 9   2683497.148 6
 96 10 24 23 12 12.6800000  0  2G23G27
  36783364.549 9                  28662337.462 6
   3444364.403 9   2683743.370 6
 96 10 24 23 12 12.7000000  0  2G23G27
  36784018.903 9                  28662847.367 6
   3444680.264 9   2683989.261 6
 96 10 24 23 12 12.7200000  0  2G23G27
  36784673.245 9                  28663357.126 6
   3444996.148 9   2684235.355 6
 96 10 24 23 12 12.7400000  0  2G23G27
  36785327.579 9                  28663866.900 6
   3445312.043 9   2684481.682 6
 96 10 24 23 12 12.7600000  0  2G23G27
  36785981.913 9                  28664376.793 7
   3445627.954 9   2684727.630 6
 96 10 24 23 12 12.7800000  0  2G23G27
  36786636.242 9                  28664886.710 6
   3445943.871 9   2684974.218 5
 96 10 24 23 12 12.8000000  0  2G23G27
  36787290.568 9                  28665396.383 6
   3446259.798 9   2685219.978 5
 96 10 24 23 12 12.8200000  0  2G23G27
  36787944.892 9                  28665906.344 6
   3446575.744 9   2685466.409 5
 96 10 24 23 12 12.8400000  0  2G23G27
  36788599.205 9                  28666416.265 6
   3446891.709 9   2685712.810 6
 96 10 24 23 12 12.8600000  0  2G23G27
  36789253.519 9                  28666926.125 6
   3447207.679 9   2685958.602 5
 96 10 24 23 12 12.8800000  0  2G23G27
  36789907.821 9                  28667436.008 6
   3447523.666 9   2686205.039 6
 96 10 24 23 12 12.9000000  0  2G23G27
  36790562.124 9                  28667945.835 6
   3447839.652 9   2686451.207 5
 96 10 24 23 12 12.9200000  0  2G23G27
  36791216.423 9                  28668455.727 7
   3448155.668 9   2686697.405 5
 96 10 24 23 12 12.9400000  0  2G23G27
  36791870.720 9                  28668965.638 6
   3448471.690 9   2686943.746 6
 96 10 24 23 12 12.9600000  0  2G23G27
  36792525.007 9                  28669475.309 6
   3448787.720 9   2687189.768 6
 96 10 24 23 12 12.9800000  0  2G23G27
  36793179.294 9                  28669985.173 6
   3449103.775 9   2687436.001 6
 96 10 24 23 12 13.0000000  0  2G23G27
  36793833.580 9                  28670495.035 6  28593999.727    28594008.262
   3449419.832 9   2687682.454 6  20729744.999                    20729749.570
 96 10 24 23 12 13.0200000  0  2G23G27
  36794487.847 9                  28671004.841 6
   3449735.906 9   2687928.701 6
 96 10 24 23 12 13.0400000  0  2G23G27
  36795142.118 9                  28671514.693 6
   3450051.996 9   2688175.253 6
 96 10 24 23 12 13.0600000  0  2G23G27
  36795796.377 9                  28672024.542 6
   3450368.091 9   2688421.560 6
 96 10 24 23 12 13.0800000  0  2G23G27
  36796450.635 9                  28672534.413 6
   3450684.205 9   2688667.684 6
 96 10 24 23 12 13.1000000  0  2G23G27
  36797104.886 9                  28673044.246 7
   3451000.320 9   2688914.061 6
 96 10 24 23 12 13.1200000  0  2G23G27
  36797759.134 9                  28673553.773 7
   3451316.452 9   2689160.279 6
 96 10 24 23 12 13.1400000  0  2G23G27
  36798413.377 9                  28674063.686 6
   3451632.605 9   2689406.998 6
 96 10 24 23 12 13.1600000  0  2G23G27
  36799067.613 9                  28674573.474 6
   3451948.755 9   2689653.332 5
 96 10 24 23 12 13.1800000  0  2G23G27
  36799721.855 9                  28675083.338 6
   3452264.929 9   2689899.611 6
 96 10 24 23 12 13.2000000  0  2G23G27
  36800376.086 9                  28675593.135 6
   3452581.117 9   2690145.993 6
 96 10 24 23 12 13.2200000  0  2G23G27
  36801030.307 9                  28676102.933 6
   3452897.310 9   2690392.096 6
 96 10 24 23 12 13.2400000  0  2G23G27
  36801684.525 9                  28676612.700 7
   3453213.528 9   2690638.582 6
 96 10 24 23 12 13.2600000  0  2G23G27
  36802338.745 9                  28677122.515 7
   3453529.746 9   2690885.154 6
 96 10 24 23 12 13.2800000  0  2G23G27
  36802992.952 9                  28677632.400 6
   3453845.974 9   2691131.323 6
 96 10 24 23 12 13.3000000  0  2G23G27
  36803647.151 9                  28678142.056 6
   3454162.224 9   2691377.702 7
 96 10 24 23 12 13.3200000  0  2G23G27
  36804301.354 9                  28678651.825 5
   3454478.488 9   2691624.532 6
 96 10 24 23 12 13.3400000  0  2G23G27
  36804955.550 9                  28679161.473 6
   3454794.765 9   2691870.720 6
 96 10 24 23 12 13.3600000  0  2G23G27
  36805609.745 9                  28679671.261 6
   3455111.041 9   2692117.233 6
 96 10 24 23 12 13.3800000  0  2G23G27
  36806263.927 9                  28680180.989 6
   3455427.335 9   2692363.681 6
 96 10 24 23 12 13.4000000  0  2G23G27
  36806918.108 9                  28680690.764 5
   3455743.646 9   2692610.324 6
 96 10 24 23 12 13.4200000  0  2G23G27
  36807572.291 9                  28681200.574 6
   3456059.971 9   2692856.984 6
 96 10 24 23 12 13.4400000  0  2G23G27
  36808226.463 9                  28681710.330 7
   3456376.307 9   2693103.268 6
 96 10 24 23 12 13.4600000  0  2G23G27
  36808880.630 9                  28682220.111 6
   3456692.663 9   2693349.637 6
 96 10 24 23 12 13.4800000  0  2G23G27
  36809534.796 9                  28682729.962 7
   3457009.033 9   2693596.019 6
 96 10 24 23 12 13.5000000  0  2G23G27
  36810188.959 9                  28683239.603 6
   3457325.400 9   2693842.860 6
 96 10 24 23 12 13.5200000  0  2G23G27
  36810843.115 9                  28683749.307 6
   3457641.783 9   2694089.038 6
 96 10 24 23 12 13.5400000  0  2G23G27
  36811497.270 9                  28684259.119 6
   3457958.196 9   2694335.672 6
 96 10 24 23 12 13.5600000  0  2G23G27
  36812151.423 9                  28684768.711 7
   3458274.627 9   2694582.258 6
 96 10 24 23 12 13.5800000  0  2G23G27
  36812805.576 9                  28685278.343 6
   3458591.063 9   2694828.796 6
 96 10 24 23 12 13.6000000  0  2G23G27
  36813459.723 9                  28685788.211 5
   3458907.516 9   2695075.490 6
 96 10 24 23 12 13.6200000  0  2G23G27
  36814113.864 9                  28686297.911 6
   3459223.985 9   2695322.377 7
 96 10 24 23 12 13.6400000  0  2G23G27
  36814768.006 9                  28686807.659 6
   3459540.467 9   2695568.751 6
 96 10 24 23 12 13.6600000  0  2G23G27
  36815422.142 9                  28687317.450 6
   3459856.950 9   2695815.512 5
 96 10 24 23 12 13.6800000  0  2G23G27
  36816076.274 9                  28687827.247 6
   3460173.461 9   2696061.988 6
 96 10 24 23 12 13.7000000  0  2G23G27
  36816730.397 9                  28688336.890 6
   3460489.976 9   2696308.542 6
 96 10 24 23 12 13.7200000  0  2G23G27
  36817384.513 9                  28688846.580 6
   3460806.504 9   2696555.301 6
 96 10 24 23 12 13.7400000  0  2G23G27
  36818038.627 9                  28689356.166 6
   3461123.048 9   2696801.954 6
 96 10 24 23 12 13.7600000  0  2G23G27
  36818692.742 9                  28689865.997 6
   3461439.602 9   2697048.744 5
 96 10 24 23 12 13.7800000  0  2G23G27
  36819346.839 9                  28690375.617 6
   3461756.159 9   2697295.339 6
 96 10 24 23 12 13.8000000  0  2G23G27
  36820000.941 9                  28690885.282 6
   3462072.740 9   2697542.171 6
 96 10 24 23 12 13.8200000  0  2G23G27
  36820655.039 9                  28691394.999 6
   3462389.334 9   2697788.450 6
 96 10 24 23 12 13.8400000  0  2G23G27
  36821309.124 9                  28691904.703 6
   3462705.941 9   2698035.465 6
 96 10 24 23 12 13.8600000  0  2G23G27
  36821963.206 9                  28692414.466 6
   3463022.557 9   2698281.905 6
 96 10 24 23 12 13.8800000  0  2G23G27
  36822617.294 9                  28692923.987 6
   3463339.188 9   2698528.804 5
 96 10 24 23 12 13.9000000  0  2G23G27
  36823271.365 9                  28693433.677 5
   3463655.826 9   2698775.361 6
 96 10 24 23 12 13.9200000  0  2G23G27
  36823925.438 9                  28693943.301 6
   3463972.481 9   2699022.191 6
 96 10 24 23 12 13.9400000  0  2G23G27
  36824579.505 9                  28694452.948 6
   3464289.144 9   2699268.994 6
 96 10 24 23 12 13.9600000  0  2G23G27
  36825233.563 9                  28694962.711 6
   3464605.826 9   2699515.806 6
 96 10 24 23 12 13.9800000  0  2G23G27
  36825887.625 9                  28695472.311 6
   3464922.519 9   2699762.602 6
 96 10 24 23 12 14.0000000  0  2G23G27
  36826541.678 9                  28695981.916 7  28600223.814    28600231.906
   3465239.213 9   2700009.290 6  20732754.965                    20732758.203
 96 10 24 23 12 14.0200000  0  2G23G27
  36827195.724 9                  28696491.721 6
   3465555.936 9   2700256.175 6
 96 10 24 23 12 14.0400000  0  2G23G27
  36827849.766 9                  28697001.352 5
   3465872.664 9   2700502.989 6
 96 10 24 23 12 14.0600000  0  2G23G27
  36828503.801 9                  28697511.103 6
   3466189.412 9   2700749.853 5
 96 10 24 23 12 14.0800000  0  2G23G27
  36829157.835 9                  28698020.639 6
   3466506.164 9   2700996.545 5
 96 10 24 23 12 14.1000000  0  2G23G27
  36829811.866 9                  28698530.231 6
   3466822.930 9   2701243.437 6
 96 10 24 23 12 14.1200000  0  2G23G27
  36830465.889 9                  28699039.931 6
   3467139.704 9   2701490.326 6
 96 10 24 23 12 14.1400000  0  2G23G27
  36831119.908 9                  28699549.428 6
   3467456.500 9   2701737.051 5
 96 10 24 23 12 14.1600000  0  2G23G27
  36831773.928 9                  28700059.038 6
   3467773.307 9   2701983.737 6
 96 10 24 23 12 14.1800000  0  2G23G27
  36832427.940 9                  28700568.728 6
   3468090.130 9   2702230.772 5
 96 10 24 23 12 14.2000000  0  2G23G27
  36833081.946 9                  28701078.359 7
   3468406.967 9   2702477.695 6
 96 10 24 23 12 14.2200000  0  2G23G27
  36833735.949 9                  28701587.923 6
   3468723.820 9   2702724.659 5
 96 10 24 23 12 14.2400000  0  2G23G27
  36834389.955 9                  28702097.586 6
   3469040.675 9   2702971.515 6
 96 10 24 23 12 14.2600000  0  2G23G27
  36835043.947 9                  28702607.174 6
   3469357.554 9   2703218.254 6
 96 10 24 23 12 14.2800000  0  2G23G27
  36835697.943 9                  28703116.806 7
   3469674.435 9   2703465.357 6
 96 10 24 23 12 14.3000000  0  2G23G27
  36836351.930 9                  28703626.457 6
   3469991.336 9   2703712.114 6
 96 10 24 23 12 14.3200000  0  2G23G27
  36837005.913 9                  28704136.020 6
   3470308.254 9   2703959.127 6
 96 10 24 23 12 14.3400000  0  2G23G27
  36837659.889 9                  28704645.747 6
   3470625.179 9   2704206.306 6
 96 10 24 23 12 14.3600000  0  2G23G27
  36838313.869 9                  28705155.294 6
   3470942.118 9   2704453.200 6
 96 10 24 23 12 14.3800000  0  2G23G27
  36838967.840 9                  28705664.926 6
   3471259.082 9   2704699.984 5
 96 10 24 23 12 14.4000000  0  2G23G27
  36839621.809 9                  28706174.492 7
   3471576.053 9   2704947.065 6
 96 10 24 23 12 14.4200000  0  2G23G27
  36840275.772 9                  28706684.038 6
   3471893.026 9   2705194.280 6
 96 10 24 23 12 14.4400000  0  2G23G27
  36840929.728 9                  28707193.560 6
   3472210.021 9   2705441.313 6
 96 10 24 23 12 14.4600000  0  2G23G27
  36841583.688 9                  28707703.197 6
   3472527.028 9   2705688.346 6
 96 10 24 23 12 14.4800000  0  2G23G27
  36842237.637 9                  28708212.762 6
   3472844.048 9   2705934.986 7
 96 10 24 23 12 14.5000000  0  2G23G27
  36842891.585 9                  28708722.318 6
   3473161.091 9   2706182.347 6
 96 10 24 23 12 14.5200000  0  2G23G27
  36843545.524 9                  28709231.855 6
   3473478.133 9   2706429.157 6
 96 10 24 23 12 14.5400000  0  2G23G27
  36844199.465 9                  28709741.519 6
   3473795.200 9   2706676.487 6
 96 10 24 23 12 14.5600000  0  2G23G27
  36844853.410 9                  28710251.067 7
   3474112.288 9   2706923.264 5
 96 10 24 23 12 14.5800000  0  2G23G27
  36845507.358 9                  28710760.588 7
   3474429.393 9   2707170.651 6
 96 10 24 23 12 14.6000000  0  2G23G27
  36846161.295 9                  28711270.024 6
   3474746.501 9   2707417.581 6
 96 10 24 23 12 14.6200000  0  2G23G27
  36846815.232 9                  28711779.543 6
   3475063.625 9   2707664.716 6
 96 10 24 23 12 14.6400000  0  2G23G27
  36847469.163 9                  28712289.293 6
   3475380.768 9   2707911.928 6
 96 10 24 23 12 14.6600000  0  2G23G27
  36848123.089 9                  28712798.923 6
   3475697.920 9   2708158.797 6
